Wetterdaten: Samstag, 01.07.2017
Datum Zeit Temp. Aussen Temp. o. S. +5cm Feuchte Auss BlattFeu 1 Luftdruck Regen Sonnenschein Regendauer Solar Windben Empfang
01.07.2017 00:00 16,4 C 15,0 C 14,4 C 92 % 15 lf 1005,0 hPa 0,0 l/m 0 min 0 min 0 W/m 6,3 km/h (2 Bft) 97,87 %
01.07.2017 00:02 16,4 C 15,0 C 14,4 C 92 % 15 lf 1005,0 hPa 0,0 l/m 0 min 0 min 0 W/m 6,3 km/h (2 Bft) 96,67 %
01.07.2017 00:04 16,3 C 15,0 C 14,4 C 92 % 15 lf 1005,0 hPa 0,0 l/m 0 min 0 min 0 W/m 4,2 km/h (1 Bft) 95,65 %
01.07.2017 00:06 16,3 C 15,0 C 14,4 C 92 % 15 lf 1005,0 hPa 0,0 l/m 0 min 0 min 0 W/m 6,3 km/h (2 Bft) 96,36 %
01.07.2017 00:10 16,3 C 15,0 C 14,4 C 92 % 15 lf 1004,9 hPa 0,0 l/m 0 min 0 min 0 W/m 8,4 km/h (2 Bft) 95,74 %
01.07.2017 00:12 16,3 C 15,0 C 14,4 C 93 % 15 lf 1004,9 hPa 0,0 l/m 0 min 0 min 0 W/m 4,2 km/h (1 Bft) 95,83 %
01.07.2017 00:14 16,2 C 15,0 C 14,4 C 93 % 15 lf 1005,0 hPa 0,0 l/m 0 min 0 min 0 W/m 4,2 km/h (1 Bft) 93,62 %
01.07.2017 00:16 16,2 C 15,0 C 14,4 C 93 % 15 lf 1004,9 hPa 0,0 l/m 0 min 0 min 0 W/m 2,1 km/h (1 Bft) 91,49 %
01.07.2017 00:18 16,2 C 15,0 C 14,4 C 93 % 15 lf 1005,0 hPa 0,0 l/m 0 min 0 min 0 W/m 4,2 km/h (1 Bft) 95,74 %
01.07.2017 00:20 16,2 C 15,0 C 14,4 C 93 % 15 lf 1005,0 hPa 0,0 l/m 0 min 0 min 0 W/m 4,2 km/h (1 Bft) 93,48 %
01.07.2017 00:22 16,2 C 15,0 C 14,4 C 93 % 15 lf 1005,0 hPa 0,0 l/m 0 min 0 min 0 W/m 0,0 km/h (0 Bft) 95,74 %
01.07.2017 00:24 16,2 C 15,0 C 14,4 C 93 % 15 lf 1005,0 hPa 0,0 l/m 0 min 0 min 0 W/m 0,0 km/h (0 Bft) 93,62 %
01.07.2017 00:26 16,1 C 15,0 C 14,4 C 93 % 15 lf 1004,9 hPa 0,0 l/m 0 min 0 min 0 W/m 0,0 km/h (0 Bft) 93,62 %
01.07.2017 00:28 16,1 C 15,0 C 14,4 C 93 % 15 lf 1005,0 hPa 0,0 l/m 0 min 0 min 0 W/m 0,0 km/h (0 Bft) 93,62 %
01.07.2017 00:30 16,1 C 15,0 C 14,4 C 93 % 15 lf 1004,9 hPa 0,0 l/m 0 min 0 min 0 W/m 0,0 km/h (0 Bft) 93,48 %
01.07.2017 00:32 16,1 C 15,0 C 14,4 C 93 % 15 lf 1004,9 hPa 0,0 l/m 0 min 0 min 0 W/m 0,0 km/h (0 Bft) 89,36 %
01.07.2017 00:34 16,1 C 15,0 C 14,4 C 93 % 15 lf 1004,9 hPa 0,0 l/m 0 min 0 min 0 W/m 0,0 km/h (0 Bft) 93,62 %
01.07.2017 00:36 16,0 C 15,0 C 14,4 C 93 % 15 lf 1005,0 hPa 0,0 l/m 0 min 0 min 0 W/m 0,0 km/h (0 Bft) 95,74 %
01.07.2017 00:38 16,0 C 15,0 C 14,4 C 93 % 15 lf 1004,9 hPa 0,0 l/m 0 min 0 min 0 W/m 6,3 km/h (2 Bft) 95,74 %
01.07.2017 00:40 16,0 C 15,0 C 14,4 C 93 % 15 lf 1004,9 hPa 0,0 l/m 0 min 0 min 0 W/m 6,3 km/h (2 Bft) 93,62 %
01.07.2017 00:42 16,0 C 15,0 C 14,4 C 93 % 15 lf 1005,0 hPa 0,0 l/m 0 min 0 min 0 W/m 8,4 km/h (2 Bft) 95,74 %
01.07.2017 00:44 15,9 C 15,0 C 14,4 C 93 % 15 lf 1004,9 hPa 0,0 l/m 0 min 0 min 0 W/m 4,2 km/h (1 Bft) 95,65 %
01.07.2017 00:46 15,9 C 15,0 C 14,4 C 93 % 15 lf 1004,9 hPa 0,0 l/m 0 min 0 min 0 W/m 8,4 km/h (2 Bft) 95,74 %
01.07.2017 00:48 15,9 C 15,0 C 14,4 C 93 % 15 lf 1004,9 hPa 0,0 l/m 0 min 0 min 0 W/m 6,3 km/h (2 Bft) 95,74 %
01.07.2017 00:50 15,9 C 15,0 C 14,4 C 93 % 15 lf 1004,8 hPa 0,0 l/m 0 min 0 min 0 W/m 6,3 km/h (2 Bft) 95,74 %
01.07.2017 00:52 15,9 C 15,0 C 14,4 C 93 % 15 lf 1004,8 hPa 0,0 l/m 0 min 0 min 0 W/m 6,3 km/h (2 Bft) 93,75 %
01.07.2017 00:54 15,9 C 15,0 C 14,4 C 93 % 15 lf 1004,9 hPa 0,0 l/m 0 min 0 min 0 W/m 6,3 km/h (2 Bft) 93,48 %
01.07.2017 00:56 15,9 C 15,0 C 14,4 C 93 % 15 lf 1004,9 hPa 0,0 l/m 0 min 0 min 0 W/m 8,4 km/h (2 Bft) 95,74 %
01.07.2017 00:58 15,9 C 15,0 C 14,4 C 93 % 15 lf 1004,9 hPa 0,0 l/m 0 min 0 min 0 W/m 8,4 km/h (2 Bft) 95,74 %
01.07.2017 01:00 15,8 C 15,0 C 14,4 C 93 % 15 lf 1005,0 hPa 0,0 l/m 0 min 0 min 0 W/m 8,4 km/h (2 Bft) 95,74 %
01.07.2017 01:02 15,8 C 15,0 C 13,9 C 94 % 15 lf 1004,9 hPa 0,0 l/m 0 min 0 min 0 W/m 8,4 km/h (2 Bft) 93,62 %
01.07.2017 01:04 15,8 C 15,0 C 13,9 C 94 % 15 lf 1004,9 hPa 0,0 l/m 0 min 0 min 0 W/m 10,5 km/h (2 Bft) 93,62 %
01.07.2017 01:06 15,8 C 15,0 C 13,9 C 94 % 15 lf 1004,9 hPa 0,0 l/m 0 min 0 min 0 W/m 10,5 km/h (2 Bft) 95,65 %
01.07.2017 01:08 15,8 C 15,0 C 13,9 C 94 % 15 lf 1005,0 hPa 0,0 l/m 0 min 0 min 0 W/m 8,4 km/h (2 Bft) 89,36 %
01.07.2017 01:10 15,8 C 15,0 C 13,9 C 94 % 15 lf 1005,0 hPa 0,0 l/m 0 min 0 min 0 W/m 8,4 km/h (2 Bft) 93,62 %
01.07.2017 01:12 15,8 C 15,0 C 13,9 C 94 % 15 lf 1005,0 hPa 0,0 l/m 0 min 0 min 0 W/m 8,4 km/h (2 Bft) 93,62 %
01.07.2017 01:14 15,8 C 15,0 C 13,9 C 94 % 15 lf 1005,0 hPa 0,0 l/m 0 min 0 min 0 W/m 8,4 km/h (2 Bft) 93,62 %
01.07.2017 01:16 15,8 C 15,0 C 13,9 C 94 % 15 lf 1005,0 hPa 0,0 l/m 0 min 0 min 0 W/m 6,3 km/h (2 Bft) 97,87 %
01.07.2017 01:18 15,8 C 15,0 C 14,4 C 94 % 15 lf 1005,0 hPa 0,0 l/m 0 min 0 min 0 W/m 8,4 km/h (2 Bft) 95,65 %
01.07.2017 01:20 15,8 C 15,0 C 13,9 C 94 % 15 lf 1005,0 hPa 0,0 l/m 0 min 0 min 0 W/m 6,3 km/h (2 Bft) 95,74 %
01.07.2017 01:22 15,7 C 15,0 C 13,9 C 94 % 15 lf 1005,0 hPa 0,0 l/m 0 min 0 min 0 W/m 8,4 km/h (2 Bft) 97,87 %
01.07.2017 01:24 15,7 C 15,0 C 13,9 C 94 % 15 lf 1005,0 hPa 0,0 l/m 0 min 0 min 0 W/m 8,4 km/h (2 Bft) 95,74 %
01.07.2017 01:26 15,7 C 15,0 C 13,9 C 94 % 15 lf 1005,0 hPa 0,0 l/m 0 min 0 min 0 W/m 4,2 km/h (1 Bft) 97,87 %
01.07.2017 01:28 15,7 C 15,0 C 13,9 C 94 % 15 lf 1005,0 hPa 0,0 l/m 0 min 0 min 0 W/m 10,5 km/h (2 Bft) 100,00 %
01.07.2017 01:30 15,7 C 15,0 C 13,9 C 94 % 15 lf 1005,0 hPa 0,0 l/m 0 min 0 min 0 W/m 6,3 km/h (2 Bft) 97,83 %
01.07.2017 01:32 15,7 C 15,0 C 13,9 C 94 % 15 lf 1005,0 hPa 0,0 l/m 0 min 0 min 0 W/m 6,3 km/h (2 Bft) 97,87 %
01.07.2017 01:34 15,7 C 15,0 C 13,9 C 94 % 15 lf 1005,1 hPa 0,0 l/m 0 min 0 min 0 W/m 6,3 km/h (2 Bft) 97,87 %
01.07.2017 01:36 15,7 C 15,0 C 13,9 C 94 % 15 lf 1005,1 hPa 0,0 l/m 0 min 0 min 0 W/m 8,4 km/h (2 Bft) 95,74 %
01.07.2017 01:38 15,7 C 15,0 C 13,9 C 94 % 15 lf 1005,1 hPa 0,0 l/m 0 min 0 min 0 W/m 4,2 km/h (1 Bft) 97,87 %
01.07.2017 01:40 15,7 C 15,0 C 13,9 C 94 % 15 lf 1005,1 hPa 0,0 l/m 0 min 0 min 0 W/m 4,2 km/h (1 Bft) 95,74 %
01.07.2017 01:42 15,7 C 15,0 C 13,9 C 94 % 15 lf 1005,2 hPa 0,0 l/m 0 min 0 min 0 W/m 6,3 km/h (2 Bft) 95,65 %
01.07.2017 01:44 15,7 C 15,0 C 13,9 C 94 % 15 lf 1005,1 hPa 0,0 l/m 0 min 0 min 0 W/m 6,3 km/h (2 Bft) 100,00 %
01.07.2017 01:46 15,7 C 15,0 C 13,9 C 94 % 15 lf 1005,1 hPa 0,0 l/m 0 min 0 min 0 W/m 4,2 km/h (1 Bft) 100,00 %
01.07.2017 01:48 15,7 C 15,0 C 13,9 C 95 % 15 lf 1005,2 hPa 0,0 l/m 0 min 0 min 0 W/m 0,0 km/h (0 Bft) 97,87 %
01.07.2017 01:50 15,6 C 15,0 C 13,9 C 95 % 15 lf 1005,2 hPa 0,0 l/m 0 min 0 min 0 W/m 6,3 km/h (2 Bft) 100,00 %
01.07.2017 01:52 15,7 C 15,0 C 13,9 C 95 % 15 lf 1005,1 hPa 0,0 l/m 0 min 0 min 0 W/m 6,3 km/h (2 Bft) 100,00 %
01.07.2017 01:54 15,6 C 15,0 C 13,9 C 95 % 15 lf 1005,1 hPa 0,0 l/m 0 min 0 min 0 W/m 4,2 km/h (1 Bft) 97,87 %
01.07.2017 01:56 15,6 C 15,0 C 13,9 C 95 % 15 lf 1005,1 hPa 0,0 l/m 0 min 0 min 0 W/m 6,3 km/h (2 Bft) 100,00 %
01.07.2017 01:58 15,6 C 15,0 C 13,9 C 95 % 15 lf 1005,1 hPa 0,0 l/m 0 min 0 min 0 W/m 6,3 km/h (2 Bft) 100,00 %
01.07.2017 02:00 15,6 C 15,0 C 13,9 C 95 % 15 lf 1005,1 hPa 0,0 l/m 0 min 0 min 0 W/m 8,4 km/h (2 Bft) 100,00 %
01.07.2017 02:02 15,6 C 15,0 C 13,9 C 95 % 15 lf 1005,0 hPa 0,0 l/m 0 min 0 min 0 W/m 6,3 km/h (2 Bft) 97,87 %
01.07.2017 02:04 15,6 C 15,0 C 13,9 C 95 % 15 lf 1005,1 hPa 0,0 l/m 0 min 0 min 0 W/m 8,4 km/h (2 Bft) 100,00 %
01.07.2017 02:06 15,6 C 15,0 C 13,9 C 95 % 15 lf 1005,0 hPa 0,0 l/m 0 min 0 min 0 W/m 8,4 km/h (2 Bft) 97,83 %
01.07.2017 02:08 15,6 C 15,0 C 13,9 C 95 % 15 lf 1005,1 hPa 0,0 l/m 0 min 0 min 0 W/m 8,4 km/h (2 Bft) 100,00 %
01.07.2017 02:10 15,6 C 15,0 C 13,9 C 95 % 15 lf 1005,1 hPa 0,0 l/m 0 min 0 min 0 W/m 8,4 km/h (2 Bft) 97,87 %
01.07.2017 02:12 15,6 C 15,0 C 13,9 C 95 % 15 lf 1005,2 hPa 0,0 l/m 0 min 0 min 0 W/m 8,4 km/h (2 Bft) 100,00 %
01.07.2017 02:14 15,6 C 15,0 C 13,9 C 95 % 15 lf 1005,0 hPa 0,0 l/m 0 min 0 min 0 W/m 8,4 km/h (2 Bft) 97,87 %
01.07.2017 02:16 15,6 C 15,0 C 13,9 C 95 % 15 lf 1005,0 hPa 0,0 l/m 0 min 0 min 0 W/m 10,5 km/h (2 Bft) 97,83 %
01.07.2017 02:18 15,6 C 15,0 C 13,9 C 95 % 15 lf 1005,0 hPa 0,0 l/m 0 min 0 min 0 W/m 6,3 km/h (2 Bft) 100,00 %
01.07.2017 02:20 15,6 C 15,0 C 13,9 C 95 % 15 lf 1005,0 hPa 0,0 l/m 0 min 0 min 0 W/m 10,5 km/h (2 Bft) 100,00 %
01.07.2017 02:22 15,6 C 15,0 C 13,9 C 95 % 15 lf 1005,0 hPa 0,0 l/m 0 min 0 min 0 W/m 6,3 km/h (2 Bft) 100,00 %
01.07.2017 02:24 15,6 C 15,0 C 13,9 C 95 % 15 lf 1005,0 hPa 0,0 l/m 0 min 0 min 0 W/m 8,4 km/h (2 Bft) 100,00 %
01.07.2017 02:26 15,6 C 15,0 C 13,9 C 95 % 15 lf 1005,0 hPa 0,0 l/m 0 min 0 min 0 W/m 6,3 km/h (2 Bft) 100,00 %
01.07.2017 02:28 15,6 C 15,0 C 13,9 C 95 % 15 lf 1005,0 hPa 0,0 l/m 0 min 0 min 0 W/m 10,5 km/h (2 Bft) 100,00 %
01.07.2017 02:30 15,6 C 14,4 C 13,9 C 95 % 15 lf 1005,0 hPa 0,0 l/m 0 min 0 min 0 W/m 6,3 km/h (2 Bft) 100,00 %
01.07.2017 02:32 15,6 C 14,4 C 13,9 C 95 % 15 lf 1005,0 hPa 0,0 l/m 0 min 0 min 0 W/m 8,4 km/h (2 Bft) 100,00 %
01.07.2017 02:34 15,6 C 14,4 C 13,9 C 95 % 15 lf 1005,0 hPa 0,0 l/m 0 min 0 min 0 W/m 6,3 km/h (2 Bft) 100,00 %
01.07.2017 02:36 15,6 C 14,4 C 13,9 C 95 % 15 lf 1005,0 hPa 0,0 l/m 0 min 0 min 0 W/m 6,3 km/h (2 Bft) 100,00 %
01.07.2017 02:38 15,5 C 14,4 C 13,9 C 95 % 15 lf 1005,0 hPa 0,0 l/m 0 min 0 min 0 W/m 8,4 km/h (2 Bft) 95,74 %
01.07.2017 02:40 15,5 C 14,4 C 13,9 C 95 % 15 lf 1005,1 hPa 0,0 l/m 0 min 0 min 0 W/m 10,5 km/h (2 Bft) 95,65 %
01.07.2017 02:42 15,5 C 14,4 C 13,9 C 95 % 15 lf 1005,1 hPa 0,0 l/m 0 min 0 min 0 W/m 6,3 km/h (2 Bft) 97,87 %
01.07.2017 02:44 15,4 C 14,4 C 13,9 C 95 % 15 lf 1005,1 hPa 0,0 l/m 0 min 0 min 0 W/m 6,3 km/h (2 Bft) 95,74 %
01.07.2017 02:46 15,4 C 14,4 C 13,9 C 95 % 15 lf 1005,2 hPa 0,0 l/m 0 min 0 min 0 W/m 8,4 km/h (2 Bft) 95,74 %
01.07.2017 02:48 15,4 C 14,4 C 13,9 C 95 % 15 lf 1005,1 hPa 0,0 l/m 0 min 0 min 0 W/m 6,3 km/h (2 Bft) 97,87 %
01.07.2017 02:50 15,4 C 14,4 C 13,9 C 95 % 15 lf 1005,2 hPa 0,0 l/m 0 min 0 min 0 W/m 6,3 km/h (2 Bft) 95,65 %
01.07.2017 02:52 15,4 C 14,4 C 13,9 C 95 % 15 lf 1005,1 hPa 0,0 l/m 0 min 0 min 0 W/m 8,4 km/h (2 Bft) 97,87 %
01.07.2017 02:54 15,4 C 14,4 C 13,9 C 95 % 15 lf 1005,1 hPa 0,0 l/m 0 min 0 min 0 W/m 8,4 km/h (2 Bft) 97,87 %
01.07.2017 02:56 15,4 C 14,4 C 13,9 C 95 % 15 lf 1005,2 hPa 0,0 l/m 0 min 0 min 0 W/m 6,3 km/h (2 Bft) 93,62 %
01.07.2017 02:58 15,4 C 14,4 C 13,9 C 95 % 15 lf 1005,2 hPa 0,0 l/m 0 min 0 min 0 W/m 8,4 km/h (2 Bft) 97,87 %
01.07.2017 03:00 15,3 C 14,4 C 13,9 C 95 % 15 lf 1005,2 hPa 0,0 l/m 0 min 0 min 0 W/m 8,4 km/h (2 Bft) 97,87 %
01.07.2017 03:02 15,3 C 14,4 C 13,9 C 95 % 15 lf 1005,1 hPa 0,0 l/m 0 min 0 min 0 W/m 8,4 km/h (2 Bft) 93,48 %
01.07.2017 03:04 15,3 C 14,4 C 13,9 C 95 % 15 lf 1005,2 hPa 0,0 l/m 0 min 0 min 0 W/m 8,4 km/h (2 Bft) 95,74 %
01.07.2017 03:06 15,3 C 14,4 C 13,9 C 95 % 15 lf 1005,2 hPa 0,0 l/m 0 min 0 min 0 W/m 8,4 km/h (2 Bft) 95,92 %
01.07.2017 03:08 15,3 C 14,4 C 13,9 C 95 % 15 lf 1005,1 hPa 0,0 l/m 0 min 0 min 0 W/m 10,5 km/h (2 Bft) 91,30 %
01.07.2017 03:10 15,3 C 14,4 C 13,9 C 95 % 15 lf 1005,2 hPa 0,0 l/m 0 min 0 min 0 W/m 8,4 km/h (2 Bft) 93,62 %
01.07.2017 03:12 15,3 C 14,4 C 13,9 C 95 % 15 lf 1005,2 hPa 0,0 l/m 0 min 0 min 0 W/m 8,4 km/h (2 Bft) 95,74 %
01.07.2017 03:14 15,3 C 14,4 C 13,9 C 95 % 15 lf 1005,2 hPa 0,0 l/m 0 min 0 min 0 W/m 8,4 km/h (2 Bft) 93,62 %
01.07.2017 03:16 15,3 C 14,4 C 13,9 C 95 % 15 lf 1005,2 hPa 0,0 l/m 0 min 0 min 0 W/m 10,5 km/h (2 Bft) 95,74 %
01.07.2017 03:18 15,3 C 14,4 C 13,9 C 95 % 15 lf 1005,2 hPa 0,0 l/m 0 min 0 min 0 W/m 8,4 km/h (2 Bft) 93,62 %
01.07.2017 03:20 15,3 C 14,4 C 13,9 C 95 % 15 lf 1005,2 hPa 0,0 l/m 0 min 0 min 0 W/m 10,5 km/h (2 Bft) 89,36 %
01.07.2017 03:22 15,3 C 14,4 C 13,9 C 95 % 15 lf 1005,2 hPa 0,0 l/m 0 min 0 min 0 W/m 6,3 km/h (2 Bft) 93,48 %
01.07.2017 03:24 15,3 C 14,4 C 13,9 C 95 % 15 lf 1005,3 hPa 0,0 l/m 0 min 0 min 0 W/m 8,4 km/h (2 Bft) 95,74 %
01.07.2017 03:26 15,3 C 14,4 C 13,9 C 96 % 15 lf 1005,2 hPa 0,0 l/m 0 min 0 min 0 W/m 10,5 km/h (2 Bft) 93,62 %
01.07.2017 03:28 15,3 C 14,4 C 13,9 C 96 % 15 lf 1005,3 hPa 0,0 l/m 0 min 0 min 0 W/m 8,4 km/h (2 Bft) 93,62 %
01.07.2017 03:30 15,3 C 14,4 C 13,9 C 96 % 15 lf 1005,2 hPa 0,0 l/m 0 min 0 min 0 W/m 8,4 km/h (2 Bft) 93,62 %
01.07.2017 03:32 15,3 C 14,4 C 13,9 C 96 % 15 lf 1005,2 hPa 0,0 l/m 0 min 0 min 0 W/m 8,4 km/h (2 Bft) 93,48 %
01.07.2017 03:34 15,3 C 14,4 C 13,9 C 96 % 15 lf 1005,3 hPa 0,0 l/m 0 min 0 min 0 W/m 12,6 km/h (3 Bft) 95,74 %
01.07.2017 03:36 15,3 C 14,4 C 13,9 C 96 % 15 lf 1005,3 hPa 0,0 l/m 0 min 2 min 0 W/m 10,5 km/h (2 Bft) 93,62 %
01.07.2017 03:38 15,3 C 14,4 C 13,9 C 96 % 15 lf 1005,2 hPa 0,0 l/m 0 min 0 min 0 W/m 6,3 km/h (2 Bft) 97,87 %
01.07.2017 03:40 15,3 C 14,4 C 13,9 C 96 % 15 lf 1005,3 hPa 0,0 l/m 0 min 2 min 0 W/m 8,4 km/h (2 Bft) 97,87 %
01.07.2017 03:42 15,3 C 14,4 C 13,9 C 96 % 15 lf 1005,2 hPa 0,0 l/m 0 min 2 min 0 W/m 10,5 km/h (2 Bft) 93,62 %
01.07.2017 03:44 15,3 C 14,4 C 13,9 C 96 % 15 lf 1005,2 hPa 0,0 l/m 0 min 2 min 0 W/m 10,5 km/h (2 Bft) 93,48 %
01.07.2017 03:46 15,3 C 14,4 C 13,9 C 96 % 15 lf 1005,2 hPa 0,0 l/m 0 min 2 min 0 W/m 8,4 km/h (2 Bft) 97,87 %
01.07.2017 03:48 15,3 C 14,4 C 13,9 C 96 % 15 lf 1005,2 hPa 0,0 l/m 0 min 2 min 0 W/m 14,6 km/h (3 Bft) 97,87 %
01.07.2017 03:50 15,3 C 14,4 C 13,9 C 96 % 15 lf 1005,2 hPa 0,0 l/m 0 min 2 min 0 W/m 14,6 km/h (3 Bft) 93,62 %
01.07.2017 03:52 15,3 C 14,4 C 13,9 C 96 % 15 lf 1005,2 hPa 0,0 l/m 0 min 2 min 0 W/m 12,6 km/h (3 Bft) 97,87 %
01.07.2017 03:54 15,3 C 14,4 C 13,9 C 96 % 15 lf 1005,3 hPa 0,0 l/m 0 min 2 min 0 W/m 12,6 km/h (3 Bft) 97,87 %
01.07.2017 03:56 15,3 C 14,4 C 13,9 C 96 % 15 lf 1005,2 hPa 0,0 l/m 0 min 2 min 0 W/m 8,4 km/h (2 Bft) 97,83 %
01.07.2017 03:58 15,3 C 14,4 C 13,9 C 96 % 15 lf 1005,3 hPa 0,2 l/m 0 min 2 min 0 W/m 10,5 km/h (2 Bft) 93,62 %
01.07.2017 04:00 15,3 C 14,4 C 13,9 C 96 % 15 lf 1005,3 hPa 0,0 l/m 0 min 2 min 0 W/m 12,6 km/h (3 Bft) 95,74 %
01.07.2017 04:02 15,3 C 14,4 C 13,9 C 96 % 15 lf 1005,3 hPa 0,0 l/m 0 min 2 min 0 W/m 12,6 km/h (3 Bft) 100,00 %
01.07.2017 04:04 15,3 C 14,4 C 13,9 C 96 % 15 lf 1005,3 hPa 0,0 l/m 0 min 2 min 0 W/m 12,6 km/h (3 Bft) 93,62 %
01.07.2017 04:06 15,3 C 14,4 C 13,9 C 96 % 15 lf 1005,2 hPa 0,0 l/m 0 min 2 min 0 W/m 10,5 km/h (2 Bft) 93,48 %
01.07.2017 04:08 15,2 C 14,4 C 13,9 C 96 % 15 lf 1005,2 hPa 0,0 l/m 0 min 2 min 0 W/m 14,6 km/h (3 Bft) 95,74 %
01.07.2017 04:10 15,2 C 14,4 C 13,9 C 96 % 15 lf 1005,2 hPa 0,2 l/m 0 min 2 min 0 W/m 12,6 km/h (3 Bft) 100,00 %
01.07.2017 04:12 15,2 C 14,4 C 13,3 C 96 % 15 lf 1005,2 hPa 0,0 l/m 0 min 2 min 0 W/m 16,7 km/h (3 Bft) 97,87 %
01.07.2017 04:14 15,2 C 14,4 C 13,3 C 95 % 15 lf 1005,2 hPa 0,0 l/m 0 min 2 min 0 W/m 12,6 km/h (3 Bft) 95,74 %
01.07.2017 04:16 15,2 C 14,4 C 13,3 C 95 % 15 lf 1005,2 hPa 0,0 l/m 0 min 2 min 0 W/m 14,6 km/h (3 Bft) 97,87 %
01.07.2017 04:18 15,2 C 14,4 C 13,3 C 96 % 15 lf 1005,2 hPa 0,2 l/m 0 min 2 min 0 W/m 12,6 km/h (3 Bft) 97,87 %
01.07.2017 04:20 15,1 C 14,4 C 13,3 C 96 % 15 lf 1005,2 hPa 0,0 l/m 0 min 2 min 0 W/m 12,6 km/h (3 Bft) 97,83 %
01.07.2017 04:22 15,1 C 14,4 C 13,3 C 96 % 15 lf 1005,2 hPa 0,0 l/m 0 min 2 min 0 W/m 14,6 km/h (3 Bft) 95,74 %
01.07.2017 04:24 15,1 C 14,4 C 13,3 C 96 % 15 lf 1005,2 hPa 0,0 l/m 0 min 2 min 0 W/m 10,5 km/h (2 Bft) 97,87 %
01.07.2017 04:26 15,1 C 14,4 C 13,3 C 96 % 15 lf 1005,2 hPa 0,2 l/m 0 min 2 min 0 W/m 8,4 km/h (2 Bft) 95,74 %
01.07.2017 04:28 15,1 C 14,4 C 13,3 C 96 % 15 lf 1005,2 hPa 0,0 l/m 0 min 2 min 0 W/m 10,5 km/h (2 Bft) 95,74 %
01.07.2017 04:30 15,1 C 14,4 C 13,3 C 96 % 15 lf 1005,2 hPa 0,0 l/m 0 min 2 min 0 W/m 6,3 km/h (2 Bft) 93,48 %
01.07.2017 04:32 15,1 C 14,4 C 13,3 C 96 % 15 lf 1005,2 hPa 0,2 l/m 0 min 2 min 0 W/m 10,5 km/h (2 Bft) 95,74 %
01.07.2017 04:34 15,1 C 14,4 C 13,3 C 96 % 15 lf 1005,2 hPa 0,0 l/m 0 min 2 min 0 W/m 8,4 km/h (2 Bft) 97,87 %
01.07.2017 04:36 15,0 C 14,4 C 13,3 C 96 % 15 lf 1005,1 hPa 0,0 l/m 0 min 2 min 0 W/m 10,5 km/h (2 Bft) 97,87 %
01.07.2017 04:38 15,0 C 14,4 C 13,3 C 96 % 15 lf 1005,2 hPa 0,0 l/m 0 min 2 min 0 W/m 8,4 km/h (2 Bft) 97,87 %
01.07.2017 04:40 15,0 C 14,4 C 13,3 C 96 % 15 lf 1005,1 hPa 0,2 l/m 0 min 2 min 0 W/m 6,3 km/h (2 Bft) 97,87 %
01.07.2017 04:42 15,0 C 14,4 C 13,3 C 96 % 15 lf 1005,1 hPa 0,0 l/m 0 min 2 min 0 W/m 8,4 km/h (2 Bft) 93,48 %
01.07.2017 04:44 15,0 C 14,4 C 13,3 C 96 % 15 lf 1005,2 hPa 0,0 l/m 0 min 2 min 0 W/m 8,4 km/h (2 Bft) 95,74 %
01.07.2017 04:46 15,0 C 14,4 C 13,3 C 96 % 15 lf 1005,2 hPa 0,0 l/m 0 min 2 min 0 W/m 10,5 km/h (2 Bft) 97,87 %
01.07.2017 04:48 15,0 C 14,4 C 13,3 C 96 % 15 lf 1005,1 hPa 0,2 l/m 0 min 2 min 0 W/m 10,5 km/h (2 Bft) 93,62 %
01.07.2017 04:50 15,0 C 14,4 C 13,3 C 96 % 15 lf 1005,1 hPa 0,0 l/m 0 min 2 min 0 W/m 10,5 km/h (2 Bft) 97,87 %
01.07.2017 04:52 14,9 C 14,4 C 13,3 C 96 % 15 lf 1005,1 hPa 0,0 l/m 0 min 2 min 0 W/m 10,5 km/h (2 Bft) 97,87 %
01.07.2017 04:54 14,9 C 14,4 C 13,3 C 96 % 15 lf 1005,1 hPa 0,0 l/m 0 min 2 min 0 W/m 10,5 km/h (2 Bft) 95,65 %
01.07.2017 04:56 15,0 C 14,4 C 13,3 C 96 % 15 lf 1005,1 hPa 0,0 l/m 0 min 2 min 0 W/m 14,6 km/h (3 Bft) 97,87 %
01.07.2017 04:58 15,0 C 14,4 C 13,3 C 96 % 15 lf 1005,1 hPa 0,2 l/m 0 min 2 min 0 W/m 12,6 km/h (3 Bft) 95,74 %
01.07.2017 05:00 15,0 C 14,4 C 13,3 C 96 % 15 lf 1005,1 hPa 0,0 l/m 0 min 2 min 0 W/m 8,4 km/h (2 Bft) 97,87 %
01.07.2017 05:03 15,0 C 14,4 C 13,3 C 96 % 15 lf 1005,0 hPa 0,0 l/m 0 min 3 min 0 W/m 16,7 km/h (3 Bft) 97,14 %
01.07.2017 05:04 15,0 C 14,4 C 13,3 C 96 % 15 lf 1005,0 hPa 0,0 l/m 0 min 1 min 0 W/m 10,5 km/h (2 Bft) 95,83 %
01.07.2017 05:06 15,0 C 14,4 C 13,3 C 96 % 15 lf 1005,0 hPa 0,0 l/m 0 min 2 min 0 W/m 16,7 km/h (3 Bft) 100,00 %
01.07.2017 05:08 15,0 C 14,4 C 13,3 C 96 % 15 lf 1004,9 hPa 0,0 l/m 0 min 2 min 0 W/m 20,9 km/h (4 Bft) 97,83 %
01.07.2017 05:10 15,0 C 14,4 C 13,3 C 96 % 15 lf 1004,9 hPa 0,2 l/m 0 min 2 min 0 W/m 16,7 km/h (3 Bft) 97,87 %
01.07.2017 05:12 15,0 C 14,4 C 13,3 C 96 % 15 lf 1004,9 hPa 0,0 l/m 0 min 2 min 0 W/m 16,7 km/h (3 Bft) 95,74 %
01.07.2017 05:14 15,0 C 14,4 C 13,3 C 96 % 15 lf 1004,9 hPa 0,0 l/m 0 min 2 min 0 W/m 18,8 km/h (3 Bft) 97,87 %
01.07.2017 05:16 15,0 C 14,4 C 13,3 C 96 % 15 lf 1005,0 hPa 0,0 l/m 0 min 2 min 0 W/m 12,6 km/h (3 Bft) 95,74 %
01.07.2017 05:18 14,9 C 14,4 C 13,3 C 96 % 15 lf 1005,0 hPa 0,0 l/m 0 min 2 min 0 W/m 18,8 km/h (3 Bft) 93,62 %
01.07.2017 05:20 14,9 C 14,4 C 13,3 C 96 % 15 lf 1004,9 hPa 0,2 l/m 0 min 2 min 0 W/m 14,6 km/h (3 Bft) 96,55 %
01.07.2017 05:22 14,9 C 14,4 C 13,3 C 96 % 15 lf 1004,8 hPa 0,0 l/m 0 min 2 min 0 W/m 20,9 km/h (4 Bft) 94,29 %
01.07.2017 05:24 14,9 C 14,4 C 13,3 C 96 % 15 lf 1004,8 hPa 0,0 l/m 0 min 2 min 0 W/m 14,6 km/h (3 Bft) 91,49 %
01.07.2017 05:26 14,9 C 14,4 C 13,3 C 96 % 15 lf 1004,7 hPa 0,0 l/m 0 min 2 min 0 W/m 14,6 km/h (3 Bft) 95,74 %
01.07.2017 05:28 14,9 C 14,4 C 13,3 C 96 % 15 lf 1004,7 hPa 0,2 l/m 0 min 2 min 0 W/m 18,8 km/h (3 Bft) 95,74 %
01.07.2017 05:30 14,9 C 14,4 C 13,3 C 96 % 15 lf 1004,7 hPa 0,0 l/m 0 min 2 min 0 W/m 10,5 km/h (2 Bft) 95,74 %
01.07.2017 05:32 14,9 C 14,4 C 13,3 C 96 % 15 lf 1004,7 hPa 0,0 l/m 0 min 2 min 0 W/m 14,6 km/h (3 Bft) 93,48 %
01.07.2017 05:34 14,9 C 14,4 C 13,3 C 96 % 15 lf 1004,6 hPa 0,0 l/m 0 min 2 min 0 W/m 14,6 km/h (3 Bft) 97,87 %
01.07.2017 05:36 14,9 C 14,4 C 13,3 C 96 % 15 lf 1004,6 hPa 0,0 l/m 0 min 2 min 0 W/m 14,6 km/h (3 Bft) 95,74 %
01.07.2017 05:38 14,9 C 14,4 C 13,3 C 96 % 15 lf 1004,6 hPa 0,0 l/m 0 min 2 min 0 W/m 18,8 km/h (3 Bft) 97,87 %
01.07.2017 05:40 14,8 C 14,4 C 13,3 C 96 % 15 lf 1004,6 hPa 0,0 l/m 0 min 2 min 0 W/m 12,6 km/h (3 Bft) 97,87 %
01.07.2017 05:42 14,8 C 14,4 C 13,3 C 96 % 15 lf 1004,6 hPa 0,0 l/m 0 min 2 min 0 W/m 12,6 km/h (3 Bft) 95,74 %
01.07.2017 05:44 14,8 C 14,4 C 13,3 C 96 % 15 lf 1004,6 hPa 0,0 l/m 0 min 2 min 5 W/m 14,6 km/h (3 Bft) 95,65 %
01.07.2017 05:46 14,8 C 14,4 C 13,3 C 96 % 15 lf 1004,6 hPa 0,0 l/m 0 min 2 min 5 W/m 14,6 km/h (3 Bft) 97,87 %
01.07.2017 05:48 14,8 C 14,4 C 13,3 C 96 % 15 lf 1004,6 hPa 0,0 l/m 0 min 2 min 5 W/m 12,6 km/h (3 Bft) 97,87 %
01.07.2017 05:50 14,8 C 14,4 C 13,3 C 96 % 15 lf 1004,6 hPa 0,0 l/m 0 min 2 min 5 W/m 16,7 km/h (3 Bft) 96,61 %
01.07.2017 05:52 14,8 C 14,4 C 13,3 C 97 % 15 lf 1004,7 hPa 0,0 l/m 0 min 2 min 5 W/m 14,6 km/h (3 Bft) 100,00 %
01.07.2017 05:54 14,8 C 14,4 C 13,3 C 97 % 15 lf 1004,7 hPa 0,0 l/m 0 min 2 min 6 W/m 8,4 km/h (2 Bft) 93,62 %
01.07.2017 05:56 14,8 C 14,4 C 13,3 C 97 % 15 lf 1004,6 hPa 0,0 l/m 0 min 2 min 7 W/m 12,6 km/h (3 Bft) 97,83 %
01.07.2017 05:58 14,8 C 14,4 C 13,3 C 97 % 15 lf 1004,7 hPa 0,0 l/m 0 min 2 min 7 W/m 14,6 km/h (3 Bft) 93,62 %
01.07.2017 06:00 14,8 C 14,4 C 13,3 C 97 % 15 lf 1004,7 hPa 0,0 l/m 0 min 2 min 7 W/m 12,6 km/h (3 Bft) 97,87 %
01.07.2017 06:02 14,8 C 14,4 C 13,3 C 97 % 15 lf 1004,7 hPa 0,0 l/m 0 min 2 min 7 W/m 16,7 km/h (3 Bft) 97,87 %
01.07.2017 06:04 14,8 C 14,4 C 13,3 C 97 % 15 lf 1004,7 hPa 0,0 l/m 0 min 2 min 7 W/m 23,0 km/h (4 Bft) 97,87 %
01.07.2017 06:06 14,8 C 14,4 C 13,3 C 97 % 15 lf 1004,7 hPa 0,0 l/m 0 min 2 min 7 W/m 16,7 km/h (3 Bft) 97,87 %
01.07.2017 06:08 14,8 C 14,4 C 13,3 C 97 % 15 lf 1004,7 hPa 0,0 l/m 0 min 2 min 8 W/m 18,8 km/h (3 Bft) 95,65 %
01.07.2017 06:10 14,8 C 14,4 C 13,3 C 97 % 15 lf 1004,6 hPa 0,2 l/m 0 min 2 min 9 W/m 18,8 km/h (3 Bft) 97,87 %
01.07.2017 06:12 14,8 C 14,4 C 13,3 C 97 % 15 lf 1004,6 hPa 0,0 l/m 0 min 2 min 9 W/m 18,8 km/h (3 Bft) 95,74 %
01.07.2017 06:14 14,8 C 14,4 C 13,3 C 97 % 15 lf 1004,6 hPa 0,0 l/m 0 min 2 min 9 W/m 16,7 km/h (3 Bft) 97,87 %
01.07.2017 06:16 14,8 C 14,4 C 13,3 C 97 % 15 lf 1004,6 hPa 0,0 l/m 0 min 2 min 9 W/m 20,9 km/h (4 Bft) 97,87 %
01.07.2017 06:18 14,8 C 14,4 C 13,3 C 97 % 15 lf 1004,7 hPa 0,0 l/m 0 min 2 min 10 W/m 16,7 km/h (3 Bft) 95,74 %
01.07.2017 06:20 14,8 C 14,4 C 13,3 C 97 % 15 lf 1004,6 hPa 0,2 l/m 0 min 2 min 12 W/m 18,8 km/h (3 Bft) 97,83 %
01.07.2017 06:22 14,8 C 14,4 C 13,3 C 97 % 15 lf 1004,6 hPa 0,0 l/m 0 min 2 min 13 W/m 18,8 km/h (3 Bft) 95,74 %
01.07.2017 06:24 14,8 C 14,4 C 13,3 C 97 % 15 lf 1004,6 hPa 0,0 l/m 0 min 2 min 15 W/m 23,0 km/h (4 Bft) 97,87 %
01.07.2017 06:26 14,8 C 14,4 C 13,3 C 97 % 15 lf 1004,6 hPa 0,0 l/m 0 min 2 min 21 W/m 16,7 km/h (3 Bft) 95,74 %
01.07.2017 06:28 14,8 C 14,4 C 13,3 C 97 % 15 lf 1004,6 hPa 0,0 l/m 0 min 2 min 23 W/m 12,6 km/h (3 Bft) 97,87 %
01.07.2017 06:30 14,8 C 14,4 C 13,3 C 97 % 15 lf 1004,6 hPa 0,0 l/m 0 min 2 min 23 W/m 14,6 km/h (3 Bft) 95,65 %
01.07.2017 06:33 14,8 C 14,4 C 13,9 C 97 % 15 lf 1004,6 hPa 0,2 l/m 0 min 3 min 21 W/m 18,8 km/h (3 Bft) 92,50 %
01.07.2017 06:34 14,8 C 14,4 C 13,3 C 97 % 15 lf 1004,6 hPa 0,0 l/m 0 min 1 min 18 W/m 14,6 km/h (3 Bft) 95,65 %
01.07.2017 06:36 14,8 C 14,4 C 13,3 C 97 % 15 lf 1004,6 hPa 0,0 l/m 0 min 2 min 15 W/m 16,7 km/h (3 Bft) 97,87 %
01.07.2017 06:38 14,8 C 14,4 C 13,3 C 97 % 15 lf 1004,6 hPa 0,0 l/m 0 min 2 min 15 W/m 23,0 km/h (4 Bft) 95,74 %
01.07.2017 06:40 14,8 C 14,4 C 13,3 C 97 % 15 lf 1004,7 hPa 0,2 l/m 0 min 2 min 16 W/m 16,7 km/h (3 Bft) 95,74 %
01.07.2017 06:42 14,8 C 14,4 C 13,3 C 97 % 15 lf 1004,6 hPa 0,0 l/m 0 min 2 min 15 W/m 18,8 km/h (3 Bft) 95,74 %
01.07.2017 06:44 14,8 C 14,4 C 13,3 C 97 % 15 lf 1004,6 hPa 0,0 l/m 0 min 2 min 17 W/m 25,1 km/h (4 Bft) 97,87 %
01.07.2017 06:46 14,8 C 14,4 C 13,3 C 97 % 15 lf 1004,6 hPa 0,2 l/m 0 min 2 min 22 W/m 27,2 km/h (4 Bft) 95,65 %
01.07.2017 06:48 14,8 C 14,4 C 13,3 C 97 % 15 lf 1004,6 hPa 0,0 l/m 0 min 2 min 25 W/m 14,6 km/h (3 Bft) 97,87 %
01.07.2017 06:50 14,8 C 14,4 C 13,3 C 97 % 15 lf 1004,6 hPa 0,0 l/m 0 min 2 min 19 W/m 25,1 km/h (4 Bft) 97,87 %
01.07.2017 06:52 14,8 C 14,4 C 13,3 C 97 % 15 lf 1004,6 hPa 0,0 l/m 0 min 2 min 17 W/m 23,0 km/h (4 Bft) 93,62 %
01.07.2017 06:54 14,8 C 14,4 C 13,3 C 97 % 15 lf 1004,6 hPa 0,2 l/m 0 min 2 min 19 W/m 18,8 km/h (3 Bft) 93,62 %
01.07.2017 06:56 14,8 C 14,4 C 13,3 C 97 % 15 lf 1004,6 hPa 0,0 l/m 0 min 2 min 21 W/m 16,7 km/h (3 Bft) 93,62 %
01.07.2017 06:58 14,8 C 14,4 C 13,3 C 97 % 15 lf 1004,6 hPa 0,0 l/m 0 min 2 min 19 W/m 18,8 km/h (3 Bft) 95,65 %
01.07.2017 07:00 14,8 C 14,4 C 13,3 C 97 % 15 lf 1004,6 hPa 0,2 l/m 0 min 2 min 15 W/m 18,8 km/h (3 Bft) 97,87 %
01.07.2017 07:02 14,8 C 14,4 C 13,3 C 97 % 15 lf 1004,5 hPa 0,2 l/m 0 min 2 min 12 W/m 18,8 km/h (3 Bft) 93,62 %
01.07.2017 07:04 14,8 C 14,4 C 13,3 C 97 % 15 lf 1004,5 hPa 0,2 l/m 0 min 2 min 10 W/m 18,8 km/h (3 Bft) 97,87 %
01.07.2017 07:06 14,8 C 14,4 C 13,3 C 97 % 15 lf 1004,5 hPa 0,2 l/m 0 min 2 min 7 W/m 16,7 km/h (3 Bft) 97,87 %
01.07.2017 07:08 14,8 C 14,4 C 13,3 C 97 % 15 lf 1004,6 hPa 0,0 l/m 0 min 2 min 12 W/m 14,6 km/h (3 Bft) 95,74 %
01.07.2017 07:10 14,8 C 14,4 C 13,3 C 97 % 15 lf 1004,5 hPa 0,0 l/m 0 min 2 min 16 W/m 14,6 km/h (3 Bft) 95,65 %
01.07.2017 07:12 14,8 C 14,4 C 13,3 C 97 % 15 lf 1004,5 hPa 0,2 l/m 0 min 2 min 19 W/m 16,7 km/h (3 Bft) 97,87 %
01.07.2017 07:14 14,8 C 14,4 C 13,3 C 97 % 15 lf 1004,6 hPa 0,2 l/m 0 min 2 min 14 W/m 18,8 km/h (3 Bft) 95,74 %
01.07.2017 07:16 14,8 C 14,4 C 13,3 C 97 % 15 lf 1004,6 hPa 0,0 l/m 0 min 2 min 10 W/m 20,9 km/h (4 Bft) 97,87 %
01.07.2017 07:18 14,8 C 14,4 C 13,3 C 97 % 15 lf 1004,6 hPa 0,4 l/m 0 min 2 min 7 W/m 10,5 km/h (2 Bft) 95,74 %
01.07.2017 07:20 14,8 C 14,4 C 13,3 C 97 % 15 lf 1004,7 hPa 0,2 l/m 0 min 2 min 8 W/m 16,7 km/h (3 Bft) 95,65 %
01.07.2017 07:22 14,7 C 14,4 C 13,3 C 97 % 15 lf 1004,7 hPa 0,2 l/m 0 min 2 min 7 W/m 10,5 km/h (2 Bft) 97,87 %
01.07.2017 07:24 14,8 C 14,4 C 13,3 C 97 % 15 lf 1004,9 hPa 0,0 l/m 0 min 2 min 5 W/m 18,8 km/h (3 Bft) 97,87 %
01.07.2017 07:26 14,8 C 14,4 C 13,3 C 97 % 15 lf 1004,9 hPa 0,2 l/m 0 min 2 min 11 W/m 12,6 km/h (3 Bft) 97,87 %
01.07.2017 07:28 14,8 C 14,4 C 13,3 C 97 % 15 lf 1004,9 hPa 0,0 l/m 0 min 2 min 19 W/m 20,9 km/h (4 Bft) 100,00 %
01.07.2017 07:30 14,8 C 14,4 C 13,3 C 97 % 15 lf 1004,9 hPa 0,0 l/m 0 min 2 min 19 W/m 16,7 km/h (3 Bft) 95,74 %
01.07.2017 07:32 14,8 C 14,4 C 13,9 C 97 % 15 lf 1004,9 hPa 0,0 l/m 0 min 2 min 14 W/m 14,6 km/h (3 Bft) 100,00 %
01.07.2017 07:34 14,8 C 14,4 C 13,3 C 97 % 15 lf 1004,9 hPa 0,0 l/m 0 min 2 min 14 W/m 14,6 km/h (3 Bft) 97,87 %
01.07.2017 07:36 14,8 C 14,4 C 13,9 C 97 % 15 lf 1004,9 hPa 0,0 l/m 0 min 2 min 24 W/m 12,6 km/h (3 Bft) 97,87 %
01.07.2017 07:38 14,8 C 14,4 C 13,9 C 97 % 15 lf 1004,9 hPa 0,0 l/m 0 min 2 min 39 W/m 14,6 km/h (3 Bft) 100,00 %
01.07.2017 07:40 14,8 C 14,4 C 13,9 C 97 % 15 lf 1004,9 hPa 0,0 l/m 0 min 2 min 50 W/m 16,7 km/h (3 Bft) 95,74 %
01.07.2017 07:42 14,8 C 14,4 C 13,9 C 98 % 15 lf 1004,9 hPa 0,0 l/m 0 min 0 min 49 W/m 12,6 km/h (3 Bft) 97,87 %
01.07.2017 07:44 14,8 C 14,4 C 13,9 C 98 % 15 lf 1004,9 hPa 0,0 l/m 0 min 2 min 44 W/m 8,4 km/h (2 Bft) 95,65 %
01.07.2017 07:46 14,8 C 14,4 C 13,9 C 98 % 15 lf 1004,9 hPa 0,0 l/m 0 min 2 min 35 W/m 16,7 km/h (3 Bft) 97,87 %
01.07.2017 07:48 14,9 C 14,4 C 13,9 C 98 % 15 lf 1004,9 hPa 0,2 l/m 0 min 0 min 37 W/m 14,6 km/h (3 Bft) 97,87 %
01.07.2017 07:50 14,9 C 14,4 C 13,9 C 98 % 15 lf 1005,0 hPa 0,0 l/m 0 min 2 min 38 W/m 14,6 km/h (3 Bft) 95,74 %
01.07.2017 07:52 14,9 C 14,4 C 13,9 C 98 % 15 lf 1005,0 hPa 0,0 l/m 0 min 2 min 41 W/m 14,6 km/h (3 Bft) 95,74 %
01.07.2017 07:54 14,9 C 14,4 C 13,9 C 98 % 15 lf 1005,0 hPa 0,0 l/m 0 min 2 min 39 W/m 20,9 km/h (4 Bft) 97,87 %
01.07.2017 07:56 14,9 C 14,4 C 13,9 C 98 % 15 lf 1005,0 hPa 0,0 l/m 0 min 2 min 41 W/m 23,0 km/h (4 Bft) 95,65 %
01.07.2017 07:58 14,9 C 14,4 C 13,9 C 98 % 15 lf 1005,1 hPa 0,0 l/m 0 min 2 min 41 W/m 20,9 km/h (4 Bft) 97,87 %
01.07.2017 08:00 14,8 C 14,4 C 13,9 C 98 % 15 lf 1005,1 hPa 0,0 l/m 0 min 2 min 41 W/m 18,8 km/h (3 Bft) 97,87 %
01.07.2017 08:02 14,8 C 14,4 C 13,9 C 98 % 15 lf 1005,1 hPa 0,0 l/m 0 min 2 min 45 W/m 14,6 km/h (3 Bft) 97,87 %
01.07.2017 08:04 14,8 C 14,4 C 13,9 C 98 % 15 lf 1005,1 hPa 0,0 l/m 0 min 0 min 51 W/m 14,6 km/h (3 Bft) 97,87 %
01.07.2017 08:06 14,8 C 14,4 C 13,9 C 98 % 15 lf 1005,2 hPa 0,0 l/m 0 min 0 min 55 W/m 20,9 km/h (4 Bft) 95,74 %
01.07.2017 08:08 14,8 C 14,4 C 13,9 C 98 % 15 lf 1005,2 hPa 0,0 l/m 0 min 0 min 45 W/m 20,9 km/h (4 Bft) 97,83 %
01.07.2017 08:10 14,8 C 14,4 C 13,9 C 98 % 15 lf 1005,1 hPa 0,0 l/m 0 min 0 min 37 W/m 16,7 km/h (3 Bft) 95,74 %
01.07.2017 08:12 14,8 C 14,4 C 13,9 C 98 % 15 lf 1005,2 hPa 0,0 l/m 0 min 0 min 38 W/m 16,7 km/h (3 Bft) 95,74 %
01.07.2017 08:14 14,8 C 14,4 C 13,9 C 98 % 15 lf 1005,1 hPa 0,0 l/m 0 min 0 min 45 W/m 12,6 km/h (3 Bft) 97,87 %
01.07.2017 08:16 14,8 C 14,4 C 13,9 C 97 % 15 lf 1005,2 hPa 0,0 l/m 0 min 2 min 45 W/m 10,5 km/h (2 Bft) 95,74 %
01.07.2017 08:18 14,8 C 14,4 C 13,9 C 97 % 15 lf 1005,2 hPa 0,0 l/m 0 min 0 min 35 W/m 23,0 km/h (4 Bft) 95,74 %
01.07.2017 08:20 14,8 C 14,4 C 13,9 C 97 % 15 lf 1005,2 hPa 0,0 l/m 0 min 0 min 42 W/m 25,1 km/h (4 Bft) 95,65 %
01.07.2017 08:22 14,7 C 14,4 C 13,9 C 97 % 15 lf 1005,1 hPa 0,0 l/m 0 min 0 min 55 W/m 18,8 km/h (3 Bft) 95,74 %
01.07.2017 08:24 14,7 C 14,4 C 13,9 C 97 % 15 lf 1005,1 hPa 0,0 l/m 0 min 0 min 61 W/m 14,6 km/h (3 Bft) 93,62 %
01.07.2017 08:26 14,7 C 14,4 C 13,9 C 97 % 15 lf 1005,1 hPa 0,0 l/m 0 min 0 min 62 W/m 20,9 km/h (4 Bft) 93,62 %
01.07.2017 08:28 14,7 C 14,4 C 13,9 C 97 % 15 lf 1005,1 hPa 0,0 l/m 0 min 2 min 64 W/m 18,8 km/h (3 Bft) 95,74 %
01.07.2017 08:30 14,7 C 14,4 C 13,9 C 97 % 15 lf 1005,2 hPa 0,0 l/m 0 min 2 min 65 W/m 16,7 km/h (3 Bft) 95,74 %
01.07.2017 08:32 14,7 C 14,4 C 13,9 C 97 % 15 lf 1005,3 hPa 0,0 l/m 0 min 0 min 56 W/m 18,8 km/h (3 Bft) 93,48 %
01.07.2017 08:34 14,7 C 14,4 C 13,9 C 97 % 15 lf 1005,2 hPa 0,0 l/m 0 min 2 min 61 W/m 14,6 km/h (3 Bft) 93,62 %
01.07.2017 08:36 14,7 C 14,4 C 13,9 C 98 % 15 lf 1005,3 hPa 0,0 l/m 0 min 0 min 64 W/m 18,8 km/h (3 Bft) 93,62 %
01.07.2017 08:38 14,7 C 14,4 C 13,9 C 98 % 15 lf 1005,3 hPa 0,0 l/m 0 min 2 min 47 W/m 12,6 km/h (3 Bft) 93,62 %
01.07.2017 08:40 14,7 C 14,4 C 13,9 C 98 % 15 lf 1005,3 hPa 0,0 l/m 0 min 2 min 47 W/m 16,7 km/h (3 Bft) 97,87 %
01.07.2017 08:42 14,7 C 14,4 C 13,9 C 98 % 15 lf 1005,4 hPa 0,0 l/m 0 min 2 min 62 W/m 14,6 km/h (3 Bft) 93,48 %
01.07.2017 08:44 14,7 C 14,4 C 13,9 C 98 % 15 lf 1005,4 hPa 0,0 l/m 0 min 2 min 65 W/m 16,7 km/h (3 Bft) 95,74 %
01.07.2017 08:46 14,7 C 14,4 C 13,9 C 98 % 15 lf 1005,4 hPa 0,0 l/m 0 min 2 min 73 W/m 14,6 km/h (3 Bft) 95,74 %
01.07.2017 08:48 14,7 C 14,4 C 13,9 C 98 % 15 lf 1005,4 hPa 0,0 l/m 0 min 0 min 91 W/m 20,9 km/h (4 Bft) 100,00 %
01.07.2017 08:50 14,8 C 14,4 C 13,9 C 98 % 15 lf 1005,4 hPa 0,0 l/m 0 min 0 min 94 W/m 14,6 km/h (3 Bft) 95,74 %
01.07.2017 08:52 14,8 C 14,4 C 13,9 C 98 % 15 lf 1005,4 hPa 0,0 l/m 0 min 0 min 97 W/m 18,8 km/h (3 Bft) 93,62 %
01.07.2017 08:54 14,8 C 14,4 C 13,9 C 98 % 15 lf 1005,4 hPa 0,0 l/m 0 min 0 min 90 W/m 16,7 km/h (3 Bft) 93,48 %
01.07.2017 08:56 14,8 C 14,4 C 13,9 C 98 % 15 lf 1005,5 hPa 0,0 l/m 0 min 0 min 84 W/m 18,8 km/h (3 Bft) 93,62 %
01.07.2017 08:58 14,8 C 14,4 C 13,9 C 98 % 15 lf 1005,5 hPa 0,0 l/m 0 min 0 min 76 W/m 18,8 km/h (3 Bft) 95,74 %
01.07.2017 09:00 14,8 C 15,0 C 13,9 C 98 % 15 lf 1005,5 hPa 0,0 l/m 0 min 2 min 76 W/m 10,5 km/h (2 Bft) 95,74 %
01.07.2017 09:02 14,8 C 14,4 C 13,9 C 98 % 15 lf 1005,6 hPa 0,0 l/m 0 min 2 min 85 W/m 20,9 km/h (4 Bft) 97,87 %
01.07.2017 09:04 14,8 C 14,4 C 13,9 C 98 % 15 lf 1005,6 hPa 0,0 l/m 0 min 2 min 96 W/m 14,6 km/h (3 Bft) 97,87 %
01.07.2017 09:06 14,8 C 14,4 C 13,9 C 98 % 15 lf 1005,7 hPa 0,0 l/m 0 min 0 min 96 W/m 12,6 km/h (3 Bft) 95,92 %
01.07.2017 09:08 14,9 C 15,0 C 13,9 C 98 % 15 lf 1005,7 hPa 0,0 l/m 0 min 0 min 95 W/m 14,6 km/h (3 Bft) 93,62 %
01.07.2017 09:10 14,9 C 15,0 C 14,4 C 98 % 15 lf 1005,7 hPa 0,0 l/m 0 min 2 min 89 W/m 16,7 km/h (3 Bft) 95,74 %
01.07.2017 09:12 14,9 C 15,0 C 13,9 C 98 % 15 lf 1005,7 hPa 0,0 l/m 0 min 2 min 79 W/m 12,6 km/h (3 Bft) 95,65 %
01.07.2017 09:14 14,9 C 15,0 C 14,4 C 98 % 15 lf 1005,7 hPa 0,0 l/m 0 min 2 min 70 W/m 8,4 km/h (2 Bft) 95,74 %
01.07.2017 09:16 14,9 C 15,0 C 14,4 C 98 % 15 lf 1005,7 hPa 0,0 l/m 0 min 2 min 74 W/m 8,4 km/h (2 Bft) 93,62 %
01.07.2017 09:18 14,9 C 15,0 C 14,4 C 98 % 15 lf 1005,6 hPa 0,0 l/m 0 min 2 min 70 W/m 10,5 km/h (2 Bft) 93,62 %
01.07.2017 09:20 14,9 C 15,0 C 14,4 C 98 % 15 lf 1005,6 hPa 0,0 l/m 0 min 2 min 76 W/m 14,6 km/h (3 Bft) 95,74 %
01.07.2017 09:22 14,9 C 15,0 C 14,4 C 98 % 15 lf 1005,7 hPa 0,0 l/m 0 min 2 min 87 W/m 12,6 km/h (3 Bft) 95,65 %
01.07.2017 09:24 15,0 C 15,0 C 14,4 C 98 % 15 lf 1005,7 hPa 0,0 l/m 0 min 2 min 76 W/m 10,5 km/h (2 Bft) 97,87 %
01.07.2017 09:26 15,0 C 15,0 C 14,4 C 98 % 15 lf 1005,7 hPa 0,0 l/m 0 min 2 min 84 W/m 16,7 km/h (3 Bft) 97,87 %
01.07.2017 09:28 15,0 C 15,0 C 14,4 C 98 % 15 lf 1005,7 hPa 0,0 l/m 0 min 2 min 119 W/m 16,7 km/h (3 Bft) 97,87 %
01.07.2017 09:30 15,0 C 15,0 C 14,4 C 98 % 15 lf 1005,6 hPa 0,0 l/m 0 min 0 min 140 W/m 16,7 km/h (3 Bft) 95,74 %
01.07.2017 09:32 15,0 C 15,0 C 14,4 C 98 % 15 lf 1005,7 hPa 0,0 l/m 0 min 0 min 133 W/m 14,6 km/h (3 Bft) 95,74 %
01.07.2017 09:34 15,1 C 15,0 C 14,4 C 98 % 15 lf 1005,8 hPa 0,0 l/m 0 min 0 min 123 W/m 14,6 km/h (3 Bft) 93,62 %
01.07.2017 09:36 15,1 C 15,0 C 14,4 C 98 % 15 lf 1005,8 hPa 0,0 l/m 0 min 0 min 105 W/m 16,7 km/h (3 Bft) 97,83 %
01.07.2017 09:38 15,1 C 15,0 C 14,4 C 98 % 15 lf 1005,8 hPa 0,0 l/m 0 min 0 min 92 W/m 16,7 km/h (3 Bft) 97,87 %
01.07.2017 09:40 15,1 C 15,0 C 14,4 C 98 % 15 lf 1005,8 hPa 0,0 l/m 0 min 0 min 75 W/m 10,5 km/h (2 Bft) 95,74 %
01.07.2017 09:42 15,1 C 15,0 C 14,4 C 98 % 15 lf 1005,8 hPa 0,0 l/m 0 min 0 min 77 W/m 12,6 km/h (3 Bft) 97,87 %
01.07.2017 09:44 15,1 C 15,0 C 14,4 C 98 % 15 lf 1005,9 hPa 0,0 l/m 0 min 0 min 127 W/m 18,8 km/h (3 Bft) 97,87 %
01.07.2017 09:46 15,1 C 15,0 C 15,0 C 98 % 15 lf 1005,9 hPa 0,0 l/m 0 min 0 min 136 W/m 12,6 km/h (3 Bft) 95,65 %
01.07.2017 09:48 15,1 C 15,0 C 15,0 C 98 % 15 lf 1006,0 hPa 0,0 l/m 0 min 0 min 109 W/m 12,6 km/h (3 Bft) 97,87 %
01.07.2017 09:50 15,1 C 15,0 C 14,4 C 98 % 15 lf 1005,9 hPa 0,0 l/m 0 min 0 min 68 W/m 16,7 km/h (3 Bft) 97,87 %
01.07.2017 09:52 15,1 C 15,0 C 14,4 C 98 % 15 lf 1006,0 hPa 0,0 l/m 0 min 0 min 63 W/m 18,8 km/h (3 Bft) 95,74 %
01.07.2017 09:54 15,1 C 15,0 C 14,4 C 98 % 15 lf 1005,9 hPa 0,0 l/m 0 min 0 min 92 W/m 20,9 km/h (4 Bft) 95,74 %
01.07.2017 09:56 15,1 C 15,0 C 14,4 C 98 % 15 lf 1006,0 hPa 0,0 l/m 0 min 0 min 97 W/m 23,0 km/h (4 Bft) 97,87 %
01.07.2017 09:58 15,1 C 15,0 C 14,4 C 98 % 15 lf 1006,0 hPa 0,0 l/m 0 min 0 min 88 W/m 10,5 km/h (2 Bft) 100,00 %
01.07.2017 10:00 15,1 C 15,0 C 14,4 C 98 % 15 lf 1006,1 hPa 0,0 l/m 0 min 0 min 91 W/m 12,6 km/h (3 Bft) 100,00 %
01.07.2017 10:02 15,1 C 15,0 C 14,4 C 98 % 15 lf 1006,0 hPa 0,0 l/m 0 min 0 min 88 W/m 14,6 km/h (3 Bft) 100,00 %
01.07.2017 10:04 15,1 C 15,0 C 14,4 C 98 % 15 lf 1006,1 hPa 0,0 l/m 0 min 0 min 86 W/m 12,6 km/h (3 Bft) 100,00 %
01.07.2017 10:06 15,1 C 15,0 C 14,4 C 98 % 15 lf 1006,1 hPa 0,0 l/m 0 min 2 min 86 W/m 16,7 km/h (3 Bft) 100,00 %
01.07.2017 10:08 15,1 C 15,0 C 14,4 C 98 % 15 lf 1006,1 hPa 0,0 l/m 0 min 2 min 82 W/m 18,8 km/h (3 Bft) 97,87 %
01.07.2017 10:10 15,1 C 15,0 C 14,4 C 98 % 15 lf 1006,1 hPa 0,0 l/m 0 min 0 min 85 W/m 18,8 km/h (3 Bft) 100,00 %
01.07.2017 10:12 15,1 C 15,0 C 14,4 C 98 % 15 lf 1006,1 hPa 0,0 l/m 0 min 0 min 95 W/m 14,6 km/h (3 Bft) 100,00 %
01.07.2017 10:14 15,1 C 15,0 C 14,4 C 98 % 15 lf 1006,1 hPa 0,0 l/m 0 min 2 min 117 W/m 18,8 km/h (3 Bft) 100,00 %
01.07.2017 10:16 15,1 C 15,0 C 14,4 C 98 % 15 lf 1006,1 hPa 0,0 l/m 0 min 0 min 132 W/m 23,0 km/h (4 Bft) 97,87 %
01.07.2017 10:18 15,1 C 15,0 C 14,4 C 98 % 15 lf 1006,1 hPa 0,0 l/m 0 min 0 min 139 W/m 20,9 km/h (4 Bft) 93,62 %
01.07.2017 10:20 15,1 C 15,6 C 14,4 C 98 % 15 lf 1006,1 hPa 0,0 l/m 0 min 0 min 124 W/m 20,9 km/h (4 Bft) 100,00 %
01.07.2017 10:22 15,1 C 15,6 C 14,4 C 97 % 15 lf 1006,1 hPa 0,0 l/m 0 min 0 min 116 W/m 16,7 km/h (3 Bft) 97,87 %
01.07.2017 10:24 15,1 C 15,6 C 14,4 C 97 % 15 lf 1006,1 hPa 0,0 l/m 0 min 0 min 120 W/m 20,9 km/h (4 Bft) 97,83 %
01.07.2017 10:26 15,1 C 15,0 C 14,4 C 97 % 15 lf 1006,2 hPa 0,0 l/m 0 min 0 min 107 W/m 10,5 km/h (2 Bft) 95,74 %
01.07.2017 10:28 15,1 C 15,0 C 14,4 C 97 % 15 lf 1006,2 hPa 0,0 l/m 0 min 2 min 100 W/m 12,6 km/h (3 Bft) 97,87 %
01.07.2017 10:30 15,1 C 15,0 C 14,4 C 97 % 15 lf 1006,2 hPa 0,0 l/m 0 min 2 min 87 W/m 14,6 km/h (3 Bft) 100,00 %
01.07.2017 10:32 15,1 C 15,0 C 14,4 C 97 % 15 lf 1006,1 hPa 0,0 l/m 0 min 0 min 92 W/m 16,7 km/h (3 Bft) 100,00 %
01.07.2017 10:34 15,1 C 15,0 C 14,4 C 97 % 15 lf 1006,2 hPa 0,0 l/m 0 min 0 min 95 W/m 12,6 km/h (3 Bft) 100,00 %
01.07.2017 10:36 15,1 C 15,0 C 14,4 C 97 % 15 lf 1006,3 hPa 0,0 l/m 0 min 2 min 105 W/m 18,8 km/h (3 Bft) 100,00 %
01.07.2017 10:38 15,1 C 15,0 C 14,4 C 97 % 15 lf 1006,2 hPa 0,0 l/m 0 min 0 min 144 W/m 18,8 km/h (3 Bft) 100,00 %
01.07.2017 10:40 15,1 C 15,0 C 14,4 C 97 % 15 lf 1006,2 hPa 0,0 l/m 0 min 2 min 169 W/m 18,8 km/h (3 Bft) 93,62 %
01.07.2017 10:42 15,1 C 15,0 C 14,4 C 97 % 15 lf 1006,3 hPa 0,0 l/m 0 min 0 min 167 W/m 14,6 km/h (3 Bft) 100,00 %
01.07.2017 10:44 15,1 C 15,6 C 15,0 C 97 % 15 lf 1006,3 hPa 0,0 l/m 0 min 0 min 168 W/m 16,7 km/h (3 Bft) 97,87 %
01.07.2017 10:46 15,1 C 15,6 C 15,0 C 97 % 15 lf 1006,3 hPa 0,0 l/m 0 min 0 min 164 W/m 23,0 km/h (4 Bft) 100,00 %
01.07.2017 10:48 15,2 C 15,6 C 15,0 C 97 % 15 lf 1006,3 hPa 0,0 l/m 0 min 0 min 148 W/m 12,6 km/h (3 Bft) 97,83 %
01.07.2017 10:50 15,2 C 15,6 C 15,0 C 97 % 15 lf 1006,3 hPa 0,0 l/m 0 min 0 min 143 W/m 18,8 km/h (3 Bft) 97,87 %
01.07.2017 10:52 15,2 C 15,6 C 14,4 C 97 % 15 lf 1006,3 hPa 0,0 l/m 0 min 0 min 105 W/m 16,7 km/h (3 Bft) 95,74 %
01.07.2017 10:54 15,2 C 15,0 C 14,4 C 97 % 15 lf 1006,3 hPa 0,0 l/m 0 min 0 min 104 W/m 14,6 km/h (3 Bft) 97,87 %
01.07.2017 10:56 15,2 C 15,6 C 15,0 C 97 % 15 lf 1006,3 hPa 0,0 l/m 0 min 0 min 121 W/m 8,4 km/h (2 Bft) 95,74 %
01.07.2017 10:58 15,2 C 15,0 C 14,4 C 97 % 15 lf 1006,3 hPa 0,0 l/m 0 min 0 min 124 W/m 14,6 km/h (3 Bft) 95,74 %
01.07.2017 11:00 15,2 C 15,6 C 15,0 C 97 % 15 lf 1006,4 hPa 0,0 l/m 0 min 0 min 145 W/m 16,7 km/h (3 Bft) 97,83 %
01.07.2017 11:02 15,2 C 15,0 C 14,4 C 97 % 15 lf 1006,4 hPa 0,0 l/m 0 min 0 min 144 W/m 16,7 km/h (3 Bft) 95,74 %
01.07.2017 11:04 15,3 C 15,6 C 14,4 C 97 % 15 lf 1006,4 hPa 0,0 l/m 0 min 0 min 146 W/m 14,6 km/h (3 Bft) 95,74 %
01.07.2017 11:06 15,3 C 15,6 C 14,4 C 97 % 15 lf 1006,4 hPa 0,0 l/m 0 min 0 min 133 W/m 12,6 km/h (3 Bft) 95,74 %
01.07.2017 11:08 15,3 C 15,6 C 15,0 C 97 % 15 lf 1006,3 hPa 0,0 l/m 0 min 0 min 153 W/m 20,9 km/h (4 Bft) 95,74 %
01.07.2017 11:10 15,3 C 15,0 C 14,4 C 97 % 15 lf 1006,4 hPa 0,0 l/m 0 min 0 min 148 W/m 16,7 km/h (3 Bft) 95,74 %
01.07.2017 11:12 15,3 C 15,6 C 15,0 C 97 % 15 lf 1006,3 hPa 0,0 l/m 0 min 0 min 134 W/m 12,6 km/h (3 Bft) 95,65 %
01.07.2017 11:14 15,3 C 15,6 C 15,0 C 97 % 15 lf 1006,4 hPa 0,0 l/m 0 min 0 min 125 W/m 10,5 km/h (2 Bft) 95,74 %
01.07.2017 11:16 15,3 C 15,0 C 14,4 C 97 % 15 lf 1006,4 hPa 0,0 l/m 0 min 0 min 97 W/m 16,7 km/h (3 Bft) 91,49 %
01.07.2017 11:18 15,3 C 15,0 C 14,4 C 97 % 15 lf 1006,5 hPa 0,0 l/m 0 min 0 min 96 W/m 18,8 km/h (3 Bft) 95,74 %
01.07.2017 11:20 15,3 C 15,0 C 14,4 C 97 % 15 lf 1006,5 hPa 0,0 l/m 0 min 2 min 105 W/m 16,7 km/h (3 Bft) 93,62 %
01.07.2017 11:22 15,3 C 15,0 C 14,4 C 97 % 15 lf 1006,5 hPa 0,0 l/m 0 min 2 min 132 W/m 18,8 km/h (3 Bft) 93,62 %
01.07.2017 11:24 15,3 C 15,0 C 14,4 C 97 % 15 lf 1006,4 hPa 0,0 l/m 0 min 2 min 126 W/m 23,0 km/h (4 Bft) 93,48 %
01.07.2017 11:26 15,3 C 15,0 C 14,4 C 97 % 15 lf 1006,5 hPa 0,0 l/m 0 min 2 min 110 W/m 12,6 km/h (3 Bft) 93,62 %
01.07.2017 11:28 15,3 C 15,0 C 14,4 C 97 % 15 lf 1006,6 hPa 0,0 l/m 0 min 2 min 103 W/m 10,5 km/h (2 Bft) 97,87 %
01.07.2017 11:30 15,3 C 15,0 C 14,4 C 97 % 15 lf 1006,5 hPa 0,0 l/m 0 min 2 min 115 W/m 18,8 km/h (3 Bft) 95,74 %
01.07.2017 11:32 15,3 C 15,0 C 14,4 C 97 % 15 lf 1006,6 hPa 0,0 l/m 0 min 0 min 113 W/m 16,7 km/h (3 Bft) 92,59 %
01.07.2017 11:34 15,3 C 15,0 C 14,4 C 97 % 15 lf 1006,6 hPa 0,0 l/m 0 min 0 min 102 W/m 16,7 km/h (3 Bft) 95,74 %
01.07.2017 11:36 15,3 C 15,0 C 14,4 C 97 % 15 lf 1006,6 hPa 0,0 l/m 0 min 0 min 98 W/m 18,8 km/h (3 Bft) 95,74 %
01.07.2017 11:38 15,3 C 15,0 C 14,4 C 97 % 15 lf 1006,6 hPa 0,0 l/m 0 min 2 min 107 W/m 16,7 km/h (3 Bft) 89,13 %
01.07.2017 11:40 15,3 C 15,0 C 14,4 C 97 % 15 lf 1006,7 hPa 0,0 l/m 0 min 2 min 99 W/m 14,6 km/h (3 Bft) 95,74 %
01.07.2017 11:42 15,3 C 15,0 C 14,4 C 97 % 15 lf 1006,6 hPa 0,0 l/m 0 min 0 min 94 W/m 20,9 km/h (4 Bft) 95,74 %
01.07.2017 11:44 15,3 C 15,0 C 14,4 C 97 % 15 lf 1006,7 hPa 0,0 l/m 0 min 2 min 97 W/m 23,0 km/h (4 Bft) 95,74 %
01.07.2017 11:46 15,3 C 15,0 C 14,4 C 97 % 15 lf 1006,8 hPa 0,2 l/m 0 min 0 min 109 W/m 16,7 km/h (3 Bft) 95,74 %
01.07.2017 11:48 15,3 C 15,0 C 14,4 C 97 % 15 lf 1006,8 hPa 0,0 l/m 0 min 0 min 101 W/m 14,6 km/h (3 Bft) 93,62 %
01.07.2017 11:50 15,3 C 15,0 C 14,4 C 97 % 15 lf 1006,8 hPa 0,0 l/m 0 min 0 min 87 W/m 18,8 km/h (3 Bft) 93,48 %
01.07.2017 11:52 15,3 C 15,0 C 14,4 C 97 % 15 lf 1006,8 hPa 0,0 l/m 0 min 0 min 86 W/m 23,0 km/h (4 Bft) 97,87 %
01.07.2017 11:54 15,3 C 15,0 C 14,4 C 97 % 15 lf 1006,9 hPa 0,0 l/m 0 min 0 min 82 W/m 16,7 km/h (3 Bft) 97,87 %
01.07.2017 11:56 15,3 C 15,0 C 14,4 C 97 % 15 lf 1006,9 hPa 0,0 l/m 0 min 0 min 68 W/m 20,9 km/h (4 Bft) 93,62 %
01.07.2017 11:58 15,2 C 15,0 C 13,9 C 97 % 15 lf 1006,9 hPa 0,0 l/m 0 min 0 min 58 W/m 18,8 km/h (3 Bft) 91,49 %
01.07.2017 12:00 15,2 C 15,0 C 14,4 C 97 % 15 lf 1006,9 hPa 0,0 l/m 0 min 0 min 65 W/m 20,9 km/h (4 Bft) 95,74 %
01.07.2017 12:02 15,2 C 15,0 C 14,4 C 97 % 15 lf 1006,9 hPa 0,0 l/m 0 min 0 min 80 W/m 12,6 km/h (3 Bft) 97,83 %
01.07.2017 12:04 15,3 C 15,0 C 14,4 C 97 % 15 lf 1006,9 hPa 0,0 l/m 0 min 0 min 91 W/m 16,7 km/h (3 Bft) 95,74 %
01.07.2017 12:06 15,3 C 15,0 C 14,4 C 97 % 15 lf 1007,0 hPa 0,0 l/m 0 min 0 min 81 W/m 14,6 km/h (3 Bft) 93,62 %
01.07.2017 12:08 15,3 C 15,0 C 14,4 C 97 % 15 lf 1006,9 hPa 0,0 l/m 0 min 0 min 73 W/m 16,7 km/h (3 Bft) 95,83 %
01.07.2017 12:10 15,3 C 15,0 C 14,4 C 97 % 15 lf 1007,0 hPa 0,0 l/m 0 min 0 min 73 W/m 16,7 km/h (3 Bft) 95,74 %
01.07.2017 12:12 15,3 C 15,0 C 14,4 C 97 % 15 lf 1007,0 hPa 0,0 l/m 0 min 0 min 84 W/m 16,7 km/h (3 Bft) 95,74 %
01.07.2017 12:14 15,3 C 15,0 C 15,0 C 97 % 15 lf 1007,1 hPa 0,0 l/m 0 min 0 min 89 W/m 16,7 km/h (3 Bft) 95,74 %
01.07.2017 12:16 15,3 C 15,0 C 14,4 C 97 % 15 lf 1007,1 hPa 0,0 l/m 0 min 0 min 88 W/m 14,6 km/h (3 Bft) 93,48 %
01.07.2017 12:18 15,4 C 15,6 C 15,0 C 97 % 15 lf 1007,2 hPa 0,0 l/m 0 min 0 min 88 W/m 14,6 km/h (3 Bft) 93,62 %
01.07.2017 12:20 15,4 C 15,6 C 15,0 C 97 % 15 lf 1007,2 hPa 0,0 l/m 0 min 0 min 83 W/m 14,6 km/h (3 Bft) 97,87 %
01.07.2017 12:22 15,4 C 15,6 C 14,4 C 97 % 15 lf 1007,2 hPa 0,0 l/m 0 min 0 min 77 W/m 16,7 km/h (3 Bft) 97,87 %
01.07.2017 12:24 15,4 C 15,6 C 15,0 C 97 % 15 lf 1007,3 hPa 0,0 l/m 0 min 0 min 87 W/m 12,6 km/h (3 Bft) 93,62 %
01.07.2017 12:26 15,4 C 15,6 C 15,0 C 97 % 15 lf 1007,3 hPa 0,0 l/m 0 min 0 min 97 W/m 14,6 km/h (3 Bft) 97,83 %
01.07.2017 12:28 15,4 C 15,6 C 15,0 C 97 % 15 lf 1007,3 hPa 0,0 l/m 0 min 0 min 93 W/m 12,6 km/h (3 Bft) 95,74 %
01.07.2017 12:30 15,4 C 15,6 C 15,0 C 97 % 15 lf 1007,3 hPa 0,0 l/m 0 min 0 min 109 W/m 8,4 km/h (2 Bft) 95,74 %
01.07.2017 12:32 15,5 C 15,6 C 15,0 C 98 % 15 lf 1007,3 hPa 0,0 l/m 0 min 0 min 141 W/m 10,5 km/h (2 Bft) 95,74 %
01.07.2017 12:34 15,6 C 16,1 C 15,6 C 98 % 15 lf 1007,3 hPa 0,0 l/m 0 min 0 min 158 W/m 10,5 km/h (2 Bft) 97,87 %
01.07.2017 12:36 15,6 C 16,1 C 15,6 C 98 % 15 lf 1007,3 hPa 0,0 l/m 0 min 0 min 183 W/m 16,7 km/h (3 Bft) 95,92 %
01.07.2017 12:38 15,6 C 16,7 C 16,1 C 98 % 15 lf 1007,3 hPa 0,0 l/m 0 min 0 min 225 W/m 14,6 km/h (3 Bft) 95,74 %
01.07.2017 12:40 15,7 C 16,7 C 16,1 C 98 % 15 lf 1007,4 hPa 0,0 l/m 0 min 0 min 247 W/m 16,7 km/h (3 Bft) 93,62 %
01.07.2017 12:42 15,8 C 16,7 C 16,1 C 98 % 15 lf 1007,5 hPa 0,0 l/m 0 min 0 min 247 W/m 14,6 km/h (3 Bft) 93,62 %
01.07.2017 12:44 15,8 C 17,2 C 16,7 C 98 % 15 lf 1007,4 hPa 0,0 l/m 0 min 0 min 269 W/m 14,6 km/h (3 Bft) 97,87 %
01.07.2017 12:46 15,9 C 17,2 C 16,1 C 98 % 14 lf 1007,5 hPa 0,0 l/m 0 min 0 min 211 W/m 14,6 km/h (3 Bft) 97,87 %
01.07.2017 12:48 16,0 C 17,2 C 16,1 C 98 % 12 lf 1007,5 hPa 0,0 l/m 0 min 0 min 224 W/m 14,6 km/h (3 Bft) 95,74 %
01.07.2017 12:50 16,1 C 17,2 C 16,1 C 98 % 9 lf 1007,5 hPa 0,0 l/m 0 min 0 min 232 W/m 14,6 km/h (3 Bft) 95,74 %
01.07.2017 12:52 16,1 C 17,2 C 16,1 C 98 % 3 lf 1007,5 hPa 0,0 l/m 0 min 0 min 247 W/m 18,8 km/h (3 Bft) 95,74 %
01.07.2017 12:54 16,1 C 17,2 C 16,1 C 98 % 1 lf 1007,7 hPa 0,0 l/m 0 min 0 min 220 W/m 20,9 km/h (4 Bft) 95,65 %
01.07.2017 12:56 16,1 C 17,2 C 16,1 C 98 % 1 lf 1007,7 hPa 0,0 l/m 0 min 0 min 171 W/m 16,7 km/h (3 Bft) 93,62 %
01.07.2017 12:58 16,2 C 17,2 C 16,1 C 98 % 0 lf 1007,7 hPa 0,0 l/m 0 min 0 min 186 W/m 12,6 km/h (3 Bft) 97,87 %
01.07.2017 13:00 16,2 C 17,2 C 16,1 C 98 % 0 lf 1007,6 hPa 0,0 l/m 0 min 0 min 122 W/m 10,5 km/h (2 Bft) 97,87 %
01.07.2017 13:02 16,2 C 16,7 C 15,6 C 98 % 1 lf 1007,7 hPa 0,0 l/m 0 min 0 min 90 W/m 16,7 km/h (3 Bft) 95,74 %
01.07.2017 13:04 16,2 C 16,7 C 15,6 C 98 % 1 lf 1007,8 hPa 0,0 l/m 0 min 0 min 82 W/m 10,5 km/h (2 Bft) 97,87 %
01.07.2017 13:06 16,2 C 16,7 C 15,0 C 98 % 1 lf 1007,8 hPa 0,0 l/m 0 min 0 min 78 W/m 16,7 km/h (3 Bft) 97,83 %
01.07.2017 13:08 16,2 C 16,7 C 15,6 C 98 % 0 lf 1007,8 hPa 0,0 l/m 0 min 0 min 112 W/m 12,6 km/h (3 Bft) 97,87 %
01.07.2017 13:10 16,2 C 16,7 C 15,6 C 98 % 0 lf 1007,9 hPa 0,0 l/m 0 min 0 min 162 W/m 12,6 km/h (3 Bft) 97,87 %
01.07.2017 13:12 16,2 C 17,2 C 16,1 C 98 % 0 lf 1007,9 hPa 0,0 l/m 0 min 0 min 162 W/m 10,5 km/h (2 Bft) 97,87 %
01.07.2017 13:14 16,2 C 17,2 C 16,1 C 98 % 0 lf 1007,9 hPa 0,0 l/m 0 min 0 min 178 W/m 8,4 km/h (2 Bft) 93,62 %
01.07.2017 13:16 16,2 C 17,8 C 16,1 C 97 % 0 lf 1008,0 hPa 0,0 l/m 0 min 0 min 172 W/m 12,6 km/h (3 Bft) 93,62 %
01.07.2017 13:18 16,2 C 17,8 C 16,1 C 97 % 0 lf 1008,0 hPa 0,0 l/m 0 min 0 min 137 W/m 8,4 km/h (2 Bft) 97,83 %
01.07.2017 13:20 16,3 C 17,8 C 15,6 C 98 % 0 lf 1008,0 hPa 0,0 l/m 0 min 0 min 130 W/m 12,6 km/h (3 Bft) 100,00 %
01.07.2017 13:22 16,3 C 17,8 C 15,6 C 98 % 0 lf 1007,9 hPa 0,0 l/m 0 min 0 min 118 W/m 16,7 km/h (3 Bft) 97,87 %
01.07.2017 13:24 16,3 C 17,2 C 15,6 C 98 % 0 lf 1008,0 hPa 0,0 l/m 0 min 0 min 101 W/m 16,7 km/h (3 Bft) 97,87 %
01.07.2017 13:26 16,3 C 17,2 C 15,6 C 97 % 0 lf 1008,0 hPa 0,0 l/m 0 min 0 min 102 W/m 12,6 km/h (3 Bft) 100,00 %
01.07.2017 13:28 16,3 C 17,2 C 15,6 C 97 % 1 lf 1008,1 hPa 0,0 l/m 0 min 0 min 118 W/m 10,5 km/h (2 Bft) 97,87 %
01.07.2017 13:30 16,3 C 17,2 C 15,6 C 97 % 0 lf 1008,1 hPa 0,0 l/m 0 min 0 min 116 W/m 12,6 km/h (3 Bft) 100,00 %
01.07.2017 13:32 16,3 C 17,2 C 15,6 C 97 % 0 lf 1008,1 hPa 0,0 l/m 0 min 0 min 128 W/m 12,6 km/h (3 Bft) 97,87 %
01.07.2017 13:34 16,3 C 17,8 C 16,1 C 97 % 0 lf 1008,1 hPa 0,0 l/m 0 min 0 min 164 W/m 10,5 km/h (2 Bft) 100,00 %
01.07.2017 13:36 16,3 C 17,8 C 15,6 C 97 % 1 lf 1008,2 hPa 0,0 l/m 0 min 0 min 148 W/m 12,6 km/h (3 Bft) 100,00 %
01.07.2017 13:38 16,3 C 17,8 C 15,6 C 97 % 0 lf 1008,2 hPa 0,0 l/m 0 min 0 min 126 W/m 14,6 km/h (3 Bft) 100,00 %
01.07.2017 13:40 16,3 C 17,8 C 15,6 C 97 % 0 lf 1008,1 hPa 0,0 l/m 0 min 0 min 119 W/m 12,6 km/h (3 Bft) 97,87 %
01.07.2017 13:42 16,4 C 17,8 C 15,6 C 97 % 0 lf 1008,2 hPa 0,0 l/m 0 min 0 min 111 W/m 12,6 km/h (3 Bft) 100,00 %
01.07.2017 13:44 16,4 C 17,8 C 16,1 C 97 % 0 lf 1008,2 hPa 0,0 l/m 0 min 0 min 123 W/m 4,2 km/h (1 Bft) 100,00 %
01.07.2017 13:46 16,4 C 17,8 C 16,1 C 97 % 0 lf 1008,2 hPa 0,0 l/m 0 min 0 min 140 W/m 6,3 km/h (2 Bft) 100,00 %
01.07.2017 13:48 16,4 C 18,3 C 16,1 C 97 % 0 lf 1008,2 hPa 0,0 l/m 0 min 0 min 206 W/m 6,3 km/h (2 Bft) 97,87 %
01.07.2017 13:50 16,5 C 18,3 C 16,7 C 97 % 0 lf 1008,2 hPa 0,0 l/m 0 min 0 min 228 W/m 4,2 km/h (1 Bft) 100,00 %
01.07.2017 13:52 16,6 C 18,9 C 16,7 C 97 % 0 lf 1008,3 hPa 0,0 l/m 0 min 0 min 184 W/m 4,2 km/h (1 Bft) 97,83 %
01.07.2017 13:54 16,6 C 18,9 C 16,7 C 97 % 0 lf 1008,2 hPa 0,0 l/m 0 min 0 min 183 W/m 10,5 km/h (2 Bft) 97,87 %
01.07.2017 13:56 16,6 C 18,9 C 16,7 C 97 % 0 lf 1008,3 hPa 0,0 l/m 0 min 0 min 254 W/m 6,3 km/h (2 Bft) 93,62 %
01.07.2017 13:58 16,7 C 18,9 C 16,7 C 97 % 1 lf 1008,2 hPa 0,0 l/m 0 min 0 min 206 W/m 14,6 km/h (3 Bft) 97,87 %
01.07.2017 14:00 16,7 C 18,3 C 16,1 C 97 % 1 lf 1008,2 hPa 0,0 l/m 0 min 0 min 140 W/m 12,6 km/h (3 Bft) 97,87 %
01.07.2017 14:02 16,7 C 17,8 C 16,1 C 97 % 3 lf 1008,3 hPa 0,0 l/m 0 min 0 min 128 W/m 8,4 km/h (2 Bft) 95,74 %
01.07.2017 14:04 16,7 C 17,8 C 16,1 C 97 % 7 lf 1008,3 hPa 0,0 l/m 0 min 0 min 122 W/m 14,6 km/h (3 Bft) 97,83 %
01.07.2017 14:06 16,7 C 17,8 C 16,1 C 97 % 8 lf 1008,3 hPa 0,0 l/m 0 min 0 min 151 W/m 6,3 km/h (2 Bft) 93,62 %
01.07.2017 14:08 16,8 C 17,8 C 16,1 C 97 % 5 lf 1008,3 hPa 0,0 l/m 0 min 0 min 165 W/m 14,6 km/h (3 Bft) 93,62 %
01.07.2017 14:10 16,8 C 17,8 C 16,1 C 97 % 4 lf 1008,4 hPa 0,0 l/m 0 min 0 min 157 W/m 16,7 km/h (3 Bft) 95,74 %
01.07.2017 14:12 16,8 C 17,8 C 16,1 C 97 % 2 lf 1008,4 hPa 0,0 l/m 0 min 0 min 175 W/m 12,6 km/h (3 Bft) 95,92 %
01.07.2017 14:14 16,8 C 18,3 C 16,1 C 97 % 0 lf 1008,5 hPa 0,0 l/m 0 min 0 min 206 W/m 8,4 km/h (2 Bft) 97,87 %
01.07.2017 14:16 16,8 C 18,9 C 16,7 C 97 % 0 lf 1008,5 hPa 0,0 l/m 0 min 0 min 254 W/m 16,7 km/h (3 Bft) 97,87 %
01.07.2017 14:18 16,9 C 19,4 C 17,2 C 97 % 0 lf 1008,5 hPa 0,0 l/m 0 min 0 min 277 W/m 14,6 km/h (3 Bft) 97,87 %
01.07.2017 14:20 16,9 C 19,4 C 17,2 C 97 % 0 lf 1008,5 hPa 0,0 l/m 0 min 0 min 196 W/m 12,6 km/h (3 Bft) 95,74 %
01.07.2017 14:22 16,9 C 18,9 C 17,2 C 97 % 0 lf 1008,6 hPa 0,0 l/m 0 min 0 min 178 W/m 14,6 km/h (3 Bft) 93,48 %
01.07.2017 14:24 17,0 C 18,9 C 16,7 C 97 % 0 lf 1008,6 hPa 0,0 l/m 0 min 0 min 172 W/m 8,4 km/h (2 Bft) 95,74 %
01.07.2017 14:26 17,0 C 18,9 C 16,7 C 97 % 0 lf 1008,6 hPa 0,0 l/m 0 min 0 min 168 W/m 16,7 km/h (3 Bft) 97,87 %
01.07.2017 14:28 17,0 C 18,9 C 16,7 C 97 % 0 lf 1008,6 hPa 0,0 l/m 0 min 0 min 174 W/m 14,6 km/h (3 Bft) 95,74 %
01.07.2017 14:30 17,0 C 18,9 C 17,2 C 96 % 0 lf 1008,7 hPa 0,0 l/m 0 min 0 min 197 W/m 12,6 km/h (3 Bft) 95,74 %
01.07.2017 14:32 17,0 C 18,9 C 17,2 C 96 % 0 lf 1008,6 hPa 0,0 l/m 0 min 0 min 212 W/m 10,5 km/h (2 Bft) 95,65 %
01.07.2017 14:34 17,0 C 18,9 C 17,2 C 96 % 0 lf 1008,7 hPa 0,0 l/m 0 min 0 min 227 W/m 16,7 km/h (3 Bft) 95,74 %
01.07.2017 14:36 17,1 C 18,9 C 17,2 C 96 % 0 lf 1008,7 hPa 0,0 l/m 0 min 0 min 238 W/m 14,6 km/h (3 Bft) 100,00 %
01.07.2017 14:38 17,1 C 18,9 C 17,2 C 96 % 0 lf 1008,8 hPa 0,0 l/m 0 min 0 min 215 W/m 8,4 km/h (2 Bft) 95,74 %
01.07.2017 14:40 17,1 C 19,4 C 17,8 C 96 % 0 lf 1008,8 hPa 0,0 l/m 0 min 2 min 220 W/m 8,4 km/h (2 Bft) 100,00 %
01.07.2017 14:42 17,2 C 19,4 C 17,8 C 96 % 1 lf 1008,8 hPa 0,0 l/m 0 min 2 min 207 W/m 10,5 km/h (2 Bft) 100,00 %
01.07.2017 14:44 17,2 C 19,4 C 17,8 C 96 % 1 lf 1008,8 hPa 0,0 l/m 0 min 0 min 195 W/m 12,6 km/h (3 Bft) 97,87 %
01.07.2017 14:46 17,2 C 19,4 C 17,8 C 96 % 0 lf 1008,8 hPa 0,0 l/m 0 min 0 min 186 W/m 14,6 km/h (3 Bft) 97,87 %
01.07.2017 14:48 17,2 C 18,9 C 17,2 C 96 % 1 lf 1008,9 hPa 0,0 l/m 0 min 2 min 166 W/m 8,4 km/h (2 Bft) 97,87 %
01.07.2017 14:50 17,3 C 18,9 C 17,2 C 96 % 1 lf 1008,9 hPa 0,0 l/m 0 min 2 min 151 W/m 12,6 km/h (3 Bft) 96,55 %
01.07.2017 14:52 17,3 C 18,9 C 16,7 C 96 % 1 lf 1008,9 hPa 0,0 l/m 0 min 0 min 132 W/m 10,5 km/h (2 Bft) 94,44 %
01.07.2017 14:54 17,3 C 18,3 C 16,7 C 96 % 1 lf 1008,9 hPa 0,0 l/m 0 min 2 min 117 W/m 14,6 km/h (3 Bft) 97,83 %
01.07.2017 14:56 17,3 C 18,3 C 16,7 C 96 % 1 lf 1009,0 hPa 0,0 l/m 0 min 2 min 100 W/m 16,7 km/h (3 Bft) 95,74 %
01.07.2017 14:58 17,2 C 17,8 C 16,1 C 95 % 3 lf 1009,0 hPa 0,0 l/m 0 min 2 min 108 W/m 12,6 km/h (3 Bft) 95,74 %
01.07.2017 15:00 17,2 C 17,8 C 16,7 C 95 % 3 lf 1009,0 hPa 0,0 l/m 0 min 2 min 122 W/m 12,6 km/h (3 Bft) 95,74 %
01.07.2017 15:02 17,2 C 17,8 C 16,7 C 95 % 2 lf 1009,0 hPa 0,0 l/m 0 min 2 min 137 W/m 8,4 km/h (2 Bft) 89,36 %
01.07.2017 15:04 17,3 C 18,3 C 16,7 C 95 % 2 lf 1009,0 hPa 0,0 l/m 0 min 2 min 133 W/m 10,5 km/h (2 Bft) 93,62 %
01.07.2017 15:06 17,3 C 18,3 C 16,7 C 95 % 0 lf 1009,0 hPa 0,0 l/m 0 min 2 min 121 W/m 12,6 km/h (3 Bft) 91,30 %
01.07.2017 15:08 17,3 C 17,8 C 16,7 C 95 % 2 lf 1009,1 hPa 0,0 l/m 0 min 2 min 112 W/m 8,4 km/h (2 Bft) 93,62 %
01.07.2017 15:10 17,3 C 18,3 C 16,7 C 95 % 2 lf 1009,1 hPa 0,0 l/m 0 min 2 min 106 W/m 8,4 km/h (2 Bft) 93,62 %
01.07.2017 15:12 17,3 C 18,3 C 16,7 C 95 % 2 lf 1009,1 hPa 0,0 l/m 0 min 2 min 109 W/m 8,4 km/h (2 Bft) 91,49 %
01.07.2017 15:14 17,3 C 18,3 C 16,7 C 95 % 2 lf 1009,1 hPa 0,0 l/m 0 min 2 min 116 W/m 8,4 km/h (2 Bft) 93,62 %
01.07.2017 15:16 17,4 C 18,3 C 16,7 C 95 % 1 lf 1009,2 hPa 0,0 l/m 0 min 2 min 112 W/m 12,6 km/h (3 Bft) 93,48 %
01.07.2017 15:18 17,4 C 18,3 C 16,7 C 95 % 1 lf 1009,2 hPa 0,0 l/m 0 min 0 min 106 W/m 10,5 km/h (2 Bft) 91,49 %
01.07.2017 15:20 17,4 C 18,3 C 16,7 C 95 % 1 lf 1009,2 hPa 0,0 l/m 0 min 0 min 103 W/m 8,4 km/h (2 Bft) 91,49 %
01.07.2017 15:22 17,4 C 18,3 C 16,7 C 95 % 1 lf 1009,3 hPa 0,0 l/m 0 min 2 min 89 W/m 8,4 km/h (2 Bft) 95,74 %
01.07.2017 15:24 17,4 C 18,3 C 16,7 C 95 % 3 lf 1009,3 hPa 0,0 l/m 0 min 0 min 78 W/m 10,5 km/h (2 Bft) 95,74 %
01.07.2017 15:26 17,4 C 17,8 C 16,1 C 95 % 2 lf 1009,3 hPa 0,0 l/m 0 min 2 min 82 W/m 8,4 km/h (2 Bft) 93,62 %
01.07.2017 15:28 17,4 C 17,8 C 16,1 C 95 % 3 lf 1009,4 hPa 0,0 l/m 0 min 2 min 86 W/m 10,5 km/h (2 Bft) 95,65 %
01.07.2017 15:30 17,3 C 17,8 C 16,1 C 95 % 4 lf 1009,4 hPa 0,0 l/m 0 min 2 min 89 W/m 16,7 km/h (3 Bft) 91,49 %
01.07.2017 15:32 17,3 C 17,2 C 16,1 C 95 % 6 lf 1009,4 hPa 0,0 l/m 0 min 2 min 89 W/m 10,5 km/h (2 Bft) 93,62 %
01.07.2017 15:34 17,3 C 17,2 C 16,1 C 95 % 13 lf 1009,5 hPa 0,0 l/m 0 min 0 min 85 W/m 12,6 km/h (3 Bft) 91,49 %
01.07.2017 15:36 17,3 C 17,2 C 16,1 C 95 % 14 lf 1009,5 hPa 0,0 l/m 0 min 0 min 77 W/m 8,4 km/h (2 Bft) 93,62 %
01.07.2017 15:38 17,3 C 17,2 C 16,1 C 95 % 15 lf 1009,5 hPa 0,0 l/m 0 min 2 min 66 W/m 8,4 km/h (2 Bft) 95,74 %
01.07.2017 15:40 17,3 C 16,7 C 15,6 C 95 % 15 lf 1009,5 hPa 0,0 l/m 0 min 2 min 55 W/m 8,4 km/h (2 Bft) 95,65 %
01.07.2017 15:42 17,2 C 16,7 C 15,6 C 95 % 15 lf 1009,5 hPa 0,0 l/m 0 min 2 min 53 W/m 6,3 km/h (2 Bft) 95,74 %
01.07.2017 15:44 17,2 C 16,7 C 15,6 C 95 % 15 lf 1009,6 hPa 0,0 l/m 0 min 2 min 65 W/m 6,3 km/h (2 Bft) 93,62 %
01.07.2017 15:46 17,2 C 16,7 C 15,6 C 95 % 15 lf 1009,5 hPa 0,0 l/m 0 min 2 min 65 W/m 10,5 km/h (2 Bft) 95,74 %
01.07.2017 15:48 17,2 C 16,7 C 15,6 C 95 % 15 lf 1009,6 hPa 0,0 l/m 0 min 2 min 85 W/m 18,8 km/h (3 Bft) 93,62 %
01.07.2017 15:50 17,2 C 16,7 C 15,6 C 95 % 15 lf 1009,6 hPa 0,0 l/m 0 min 0 min 87 W/m 12,6 km/h (3 Bft) 95,74 %
01.07.2017 15:52 17,2 C 16,7 C 15,6 C 95 % 15 lf 1009,7 hPa 0,0 l/m 0 min 2 min 87 W/m 12,6 km/h (3 Bft) 97,83 %
01.07.2017 15:54 17,2 C 16,7 C 16,1 C 95 % 15 lf 1009,7 hPa 0,0 l/m 0 min 0 min 103 W/m 10,5 km/h (2 Bft) 97,87 %
01.07.2017 15:56 17,1 C 16,7 C 16,1 C 95 % 15 lf 1009,7 hPa 0,0 l/m 0 min 0 min 100 W/m 12,6 km/h (3 Bft) 100,00 %
01.07.2017 15:58 17,2 C 16,7 C 16,1 C 95 % 15 lf 1009,7 hPa 0,0 l/m 0 min 0 min 110 W/m 10,5 km/h (2 Bft) 100,00 %
01.07.2017 16:00 17,2 C 16,7 C 16,1 C 95 % 15 lf 1009,7 hPa 0,0 l/m 0 min 0 min 124 W/m 14,6 km/h (3 Bft) 97,87 %
01.07.2017 16:02 17,2 C 16,7 C 16,1 C 95 % 15 lf 1009,7 hPa 0,0 l/m 0 min 0 min 116 W/m 16,7 km/h (3 Bft) 100,00 %
01.07.2017 16:04 17,2 C 16,7 C 16,1 C 95 % 15 lf 1009,8 hPa 0,0 l/m 0 min 0 min 106 W/m 10,5 km/h (2 Bft) 100,00 %
01.07.2017 16:06 17,2 C 17,2 C 16,1 C 95 % 15 lf 1009,8 hPa 0,0 l/m 0 min 0 min 92 W/m 14,6 km/h (3 Bft) 97,87 %
01.07.2017 16:08 17,2 C 17,2 C 16,1 C 95 % 15 lf 1009,8 hPa 0,0 l/m 0 min 0 min 87 W/m 8,4 km/h (2 Bft) 100,00 %
01.07.2017 16:10 17,2 C 16,7 C 16,1 C 95 % 15 lf 1009,9 hPa 0,0 l/m 0 min 0 min 78 W/m 10,5 km/h (2 Bft) 100,00 %
01.07.2017 16:12 17,2 C 16,7 C 16,1 C 95 % 15 lf 1009,9 hPa 0,0 l/m 0 min 0 min 77 W/m 10,5 km/h (2 Bft) 97,87 %
01.07.2017 16:14 17,2 C 17,2 C 16,1 C 95 % 15 lf 1009,9 hPa 0,0 l/m 0 min 0 min 81 W/m 10,5 km/h (2 Bft) 100,00 %
01.07.2017 16:16 17,2 C 17,2 C 16,1 C 95 % 15 lf 1009,9 hPa 0,0 l/m 0 min 0 min 82 W/m 10,5 km/h (2 Bft) 100,00 %
01.07.2017 16:18 17,2 C 17,2 C 16,1 C 95 % 15 lf 1010,0 hPa 0,0 l/m 0 min 2 min 84 W/m 12,6 km/h (3 Bft) 95,74 %
01.07.2017 16:20 17,2 C 17,2 C 16,1 C 96 % 15 lf 1010,0 hPa 0,0 l/m 0 min 0 min 84 W/m 8,4 km/h (2 Bft) 100,00 %
01.07.2017 16:22 17,2 C 17,2 C 16,1 C 96 % 15 lf 1010,0 hPa 0,0 l/m 0 min 0 min 73 W/m 6,3 km/h (2 Bft) 100,00 %
01.07.2017 16:24 17,2 C 17,2 C 16,1 C 96 % 15 lf 1010,0 hPa 0,0 l/m 0 min 0 min 52 W/m 8,4 km/h (2 Bft) 100,00 %
01.07.2017 16:26 17,2 C 17,2 C 16,1 C 96 % 15 lf 1010,2 hPa 0,2 l/m 0 min 2 min 46 W/m 10,5 km/h (2 Bft) 100,00 %
01.07.2017 16:28 17,2 C 16,7 C 16,1 C 96 % 15 lf 1010,2 hPa 0,0 l/m 0 min 2 min 39 W/m 10,5 km/h (2 Bft) 97,83 %
01.07.2017 16:30 17,2 C 16,7 C 15,6 C 96 % 15 lf 1010,2 hPa 0,0 l/m 0 min 2 min 44 W/m 8,4 km/h (2 Bft) 100,00 %
01.07.2017 16:32 17,2 C 16,7 C 15,6 C 96 % 15 lf 1010,2 hPa 0,0 l/m 0 min 2 min 64 W/m 12,6 km/h (3 Bft) 100,00 %
01.07.2017 16:34 17,2 C 16,7 C 16,1 C 96 % 15 lf 1010,2 hPa 0,0 l/m 0 min 2 min 109 W/m 10,5 km/h (2 Bft) 100,00 %
01.07.2017 16:36 17,2 C 17,2 C 16,1 C 95 % 15 lf 1010,2 hPa 0,0 l/m 0 min 0 min 120 W/m 8,4 km/h (2 Bft) 100,00 %
01.07.2017 16:38 17,2 C 17,2 C 16,1 C 95 % 15 lf 1010,2 hPa 0,0 l/m 0 min 2 min 126 W/m 10,5 km/h (2 Bft) 97,83 %
01.07.2017 16:40 17,2 C 17,2 C 16,1 C 95 % 15 lf 1010,3 hPa 0,0 l/m 0 min 0 min 133 W/m 8,4 km/h (2 Bft) 95,74 %
01.07.2017 16:42 17,2 C 17,2 C 16,1 C 96 % 15 lf 1010,3 hPa 0,0 l/m 0 min 0 min 141 W/m 6,3 km/h (2 Bft) 91,49 %
01.07.2017 16:44 17,2 C 17,8 C 16,7 C 96 % 15 lf 1010,3 hPa 0,0 l/m 0 min 0 min 148 W/m 8,4 km/h (2 Bft) 97,87 %
01.07.2017 16:46 17,2 C 17,8 C 16,7 C 96 % 15 lf 1010,3 hPa 0,0 l/m 0 min 0 min 147 W/m 6,3 km/h (2 Bft) 95,74 %
01.07.2017 16:48 17,2 C 17,8 C 16,1 C 96 % 15 lf 1010,3 hPa 0,0 l/m 0 min 0 min 132 W/m 10,5 km/h (2 Bft) 95,74 %
01.07.2017 16:50 17,2 C 17,8 C 16,1 C 96 % 15 lf 1010,3 hPa 0,0 l/m 0 min 0 min 103 W/m 14,6 km/h (3 Bft) 95,65 %
01.07.2017 16:52 17,2 C 17,2 C 16,1 C 96 % 15 lf 1010,3 hPa 0,0 l/m 0 min 0 min 92 W/m 8,4 km/h (2 Bft) 93,62 %
01.07.2017 16:54 17,2 C 17,8 C 16,1 C 96 % 15 lf 1010,3 hPa 0,0 l/m 0 min 0 min 90 W/m 8,4 km/h (2 Bft) 93,62 %
01.07.2017 16:56 17,2 C 17,8 C 16,1 C 96 % 15 lf 1010,3 hPa 0,0 l/m 0 min 0 min 99 W/m 8,4 km/h (2 Bft) 93,62 %
01.07.2017 16:58 17,2 C 17,8 C 16,7 C 96 % 15 lf 1010,3 hPa 0,0 l/m 0 min 0 min 113 W/m 12,6 km/h (3 Bft) 95,74 %
01.07.2017 17:00 17,2 C 17,8 C 16,7 C 96 % 15 lf 1010,4 hPa 0,0 l/m 0 min 0 min 129 W/m 8,4 km/h (2 Bft) 95,74 %
01.07.2017 17:02 17,2 C 17,8 C 16,7 C 96 % 15 lf 1010,4 hPa 0,0 l/m 0 min 0 min 148 W/m 10,5 km/h (2 Bft) 95,65 %
01.07.2017 17:04 17,2 C 17,8 C 16,7 C 96 % 15 lf 1010,4 hPa 0,0 l/m 0 min 0 min 164 W/m 12,6 km/h (3 Bft) 95,74 %
01.07.2017 17:06 17,2 C 18,3 C 16,7 C 96 % 15 lf 1010,5 hPa 0,0 l/m 0 min 0 min 155 W/m 10,5 km/h (2 Bft) 93,62 %
01.07.2017 17:08 17,3 C 18,3 C 16,7 C 96 % 15 lf 1010,5 hPa 0,0 l/m 0 min 0 min 118 W/m 12,6 km/h (3 Bft) 95,74 %
01.07.2017 17:10 17,3 C 17,8 C 16,7 C 96 % 14 lf 1010,5 hPa 0,0 l/m 0 min 0 min 78 W/m 10,5 km/h (2 Bft) 93,62 %
01.07.2017 17:12 17,3 C 17,8 C 16,1 C 96 % 13 lf 1010,5 hPa 0,0 l/m 0 min 0 min 69 W/m 8,4 km/h (2 Bft) 91,49 %
01.07.2017 17:14 17,3 C 17,8 C 16,1 C 96 % 13 lf 1010,6 hPa 0,0 l/m 0 min 0 min 60 W/m 10,5 km/h (2 Bft) 93,48 %
01.07.2017 17:16 17,3 C 17,8 C 16,1 C 96 % 13 lf 1010,6 hPa 0,0 l/m 0 min 0 min 61 W/m 10,5 km/h (2 Bft) 95,74 %
01.07.2017 17:18 17,3 C 17,2 C 16,1 C 96 % 15 lf 1010,6 hPa 0,0 l/m 0 min 0 min 71 W/m 12,6 km/h (3 Bft) 95,74 %
01.07.2017 17:20 17,3 C 17,2 C 16,1 C 96 % 15 lf 1010,6 hPa 0,0 l/m 0 min 2 min 90 W/m 10,5 km/h (2 Bft) 97,87 %
01.07.2017 17:22 17,3 C 17,2 C 16,1 C 96 % 15 lf 1010,7 hPa 0,0 l/m 0 min 2 min 87 W/m 12,6 km/h (3 Bft) 93,62 %
01.07.2017 17:24 17,3 C 17,2 C 16,1 C 96 % 15 lf 1010,8 hPa 0,0 l/m 0 min 0 min 85 W/m 12,6 km/h (3 Bft) 95,74 %
01.07.2017 17:26 17,3 C 17,2 C 15,6 C 96 % 15 lf 1010,8 hPa 0,0 l/m 0 min 2 min 81 W/m 10,5 km/h (2 Bft) 97,83 %
01.07.2017 17:28 17,3 C 17,2 C 16,1 C 96 % 15 lf 1010,8 hPa 0,2 l/m 0 min 2 min 92 W/m 4,2 km/h (1 Bft) 100,00 %
01.07.2017 17:30 17,3 C 17,2 C 16,1 C 96 % 15 lf 1010,7 hPa 0,0 l/m 0 min 2 min 106 W/m 10,5 km/h (2 Bft) 100,00 %
01.07.2017 17:32 17,3 C 17,2 C 16,1 C 96 % 15 lf 1010,7 hPa 0,0 l/m 0 min 2 min 125 W/m 12,6 km/h (3 Bft) 100,00 %
01.07.2017 17:34 17,3 C 17,2 C 16,1 C 96 % 15 lf 1010,8 hPa 0,0 l/m 0 min 0 min 134 W/m 10,5 km/h (2 Bft) 100,00 %
01.07.2017 17:36 17,3 C 17,2 C 16,1 C 96 % 15 lf 1010,9 hPa 0,0 l/m 0 min 0 min 136 W/m 8,4 km/h (2 Bft) 97,87 %
01.07.2017 17:38 17,3 C 17,2 C 16,1 C 96 % 15 lf 1010,8 hPa 0,0 l/m 0 min 0 min 130 W/m 10,5 km/h (2 Bft) 100,00 %
01.07.2017 17:40 17,3 C 17,2 C 16,7 C 96 % 15 lf 1010,8 hPa 0,0 l/m 0 min 0 min 128 W/m 14,6 km/h (3 Bft) 95,74 %
01.07.2017 17:42 17,3 C 17,8 C 16,7 C 96 % 15 lf 1010,9 hPa 0,0 l/m 0 min 0 min 129 W/m 10,5 km/h (2 Bft) 100,00 %
01.07.2017 17:44 17,3 C 17,8 C 16,7 C 96 % 15 lf 1010,9 hPa 0,0 l/m 0 min 0 min 119 W/m 8,4 km/h (2 Bft) 100,00 %
01.07.2017 17:46 17,3 C 17,8 C 16,1 C 96 % 15 lf 1010,9 hPa 0,0 l/m 0 min 0 min 96 W/m 14,6 km/h (3 Bft) 97,87 %
01.07.2017 17:48 17,3 C 17,8 C 16,1 C 96 % 15 lf 1011,0 hPa 0,0 l/m 0 min 0 min 95 W/m 10,5 km/h (2 Bft) 97,87 %
01.07.2017 17:50 17,3 C 17,2 C 16,1 C 96 % 15 lf 1011,0 hPa 0,0 l/m 0 min 0 min 92 W/m 16,7 km/h (3 Bft) 98,28 %
01.07.2017 17:52 17,3 C 17,2 C 16,1 C 96 % 15 lf 1011,0 hPa 0,0 l/m 0 min 0 min 88 W/m 10,5 km/h (2 Bft) 100,00 %
01.07.2017 17:54 17,3 C 17,2 C 16,1 C 96 % 15 lf 1011,0 hPa 0,0 l/m 0 min 0 min 83 W/m 14,6 km/h (3 Bft) 97,87 %
01.07.2017 17:56 17,3 C 17,2 C 16,1 C 96 % 15 lf 1011,1 hPa 0,0 l/m 0 min 0 min 75 W/m 16,7 km/h (3 Bft) 100,00 %
01.07.2017 17:58 17,3 C 17,2 C 16,1 C 96 % 15 lf 1011,1 hPa 0,0 l/m 0 min 0 min 73 W/m 16,7 km/h (3 Bft) 100,00 %
01.07.2017 18:00 17,3 C 17,2 C 16,1 C 96 % 15 lf 1011,1 hPa 0,0 l/m 0 min 2 min 72 W/m 14,6 km/h (3 Bft) 100,00 %
01.07.2017 18:02 17,2 C 17,2 C 16,1 C 96 % 15 lf 1011,1 hPa 0,0 l/m 0 min 0 min 71 W/m 8,4 km/h (2 Bft) 93,62 %
01.07.2017 18:04 17,2 C 17,2 C 16,1 C 96 % 15 lf 1011,1 hPa 0,0 l/m 0 min 0 min 69 W/m 10,5 km/h (2 Bft) 89,36 %
01.07.2017 18:06 17,2 C 17,2 C 16,1 C 96 % 15 lf 1011,1 hPa 0,0 l/m 0 min 0 min 74 W/m 14,6 km/h (3 Bft) 95,74 %
01.07.2017 18:08 17,2 C 17,2 C 16,1 C 96 % 15 lf 1011,2 hPa 0,0 l/m 0 min 0 min 77 W/m 14,6 km/h (3 Bft) 98,00 %
01.07.2017 18:10 17,2 C 17,2 C 15,6 C 96 % 15 lf 1011,2 hPa 0,0 l/m 0 min 0 min 77 W/m 27,2 km/h (4 Bft) 97,87 %
01.07.2017 18:12 17,2 C 17,2 C 15,6 C 96 % 15 lf 1011,2 hPa 0,0 l/m 0 min 0 min 75 W/m 16,7 km/h (3 Bft) 97,83 %
01.07.2017 18:14 17,1 C 17,2 C 15,6 C 96 % 15 lf 1011,3 hPa 0,0 l/m 0 min 0 min 68 W/m 23,0 km/h (4 Bft) 97,87 %
01.07.2017 18:16 17,1 C 17,2 C 15,0 C 96 % 15 lf 1011,3 hPa 0,0 l/m 0 min 0 min 60 W/m 23,0 km/h (4 Bft) 97,87 %
01.07.2017 18:18 17,0 C 17,2 C 15,6 C 95 % 15 lf 1011,3 hPa 0,0 l/m 0 min 2 min 59 W/m 16,7 km/h (3 Bft) 97,87 %
01.07.2017 18:20 17,0 C 16,7 C 15,6 C 95 % 15 lf 1011,4 hPa 0,0 l/m 0 min 2 min 56 W/m 16,7 km/h (3 Bft) 93,62 %
01.07.2017 18:22 16,9 C 16,7 C 15,6 C 96 % 15 lf 1011,4 hPa 0,0 l/m 0 min 2 min 57 W/m 18,8 km/h (3 Bft) 97,87 %
01.07.2017 18:24 16,9 C 16,7 C 15,6 C 96 % 15 lf 1011,5 hPa 0,0 l/m 0 min 2 min 66 W/m 14,6 km/h (3 Bft) 95,65 %
01.07.2017 18:26 16,9 C 16,7 C 15,6 C 96 % 15 lf 1011,5 hPa 0,0 l/m 0 min 0 min 76 W/m 18,8 km/h (3 Bft) 97,87 %
01.07.2017 18:28 16,9 C 16,7 C 15,6 C 96 % 15 lf 1011,5 hPa 0,0 l/m 0 min 2 min 71 W/m 20,9 km/h (4 Bft) 95,74 %
01.07.2017 18:30 16,9 C 16,7 C 15,0 C 96 % 15 lf 1011,5 hPa 0,0 l/m 0 min 2 min 48 W/m 27,2 km/h (4 Bft) 95,74 %
01.07.2017 18:32 16,9 C 16,7 C 15,0 C 96 % 15 lf 1011,5 hPa 0,0 l/m 0 min 2 min 38 W/m 16,7 km/h (3 Bft) 91,49 %
01.07.2017 18:34 16,9 C 16,7 C 15,0 C 96 % 15 lf 1011,6 hPa 0,0 l/m 0 min 2 min 42 W/m 12,6 km/h (3 Bft) 95,74 %
01.07.2017 18:36 16,8 C 16,7 C 15,0 C 96 % 15 lf 1011,7 hPa 0,0 l/m 0 min 2 min 51 W/m 10,5 km/h (2 Bft) 95,65 %
01.07.2017 18:38 16,8 C 16,7 C 15,6 C 96 % 15 lf 1011,7 hPa 0,0 l/m 0 min 0 min 50 W/m 12,6 km/h (3 Bft) 87,23 %
01.07.2017 18:40 16,8 C 16,7 C 15,0 C 96 % 15 lf 1011,8 hPa 0,0 l/m 0 min 0 min 43 W/m 10,5 km/h (2 Bft) 95,74 %
01.07.2017 18:42 16,8 C 16,7 C 15,0 C 96 % 15 lf 1011,8 hPa 0,0 l/m 0 min 0 min 42 W/m 14,6 km/h (3 Bft) 95,74 %
01.07.2017 18:44 16,8 C 16,7 C 15,6 C 96 % 15 lf 1011,8 hPa 0,0 l/m 0 min 0 min 44 W/m 12,6 km/h (3 Bft) 93,62 %
01.07.2017 18:46 16,8 C 16,7 C 15,6 C 96 % 15 lf 1011,8 hPa 0,0 l/m 0 min 0 min 41 W/m 12,6 km/h (3 Bft) 95,65 %
01.07.2017 18:48 16,8 C 16,7 C 15,6 C 96 % 15 lf 1011,8 hPa 0,0 l/m 0 min 0 min 41 W/m 8,4 km/h (2 Bft) 93,62 %
01.07.2017 18:50 16,8 C 16,7 C 15,6 C 96 % 15 lf 1011,8 hPa 0,0 l/m 0 min 0 min 43 W/m 10,5 km/h (2 Bft) 91,49 %
01.07.2017 18:53 16,8 C 16,7 C 15,6 C 96 % 15 lf 1011,8 hPa 0,0 l/m 0 min 0 min 46 W/m 14,6 km/h (3 Bft) 90,00 %
01.07.2017 18:54 16,8 C 16,7 C 15,6 C 96 % 15 lf 1011,8 hPa 0,0 l/m 0 min 0 min 46 W/m 8,4 km/h (2 Bft) 100,00 %
01.07.2017 18:58 16,8 C 16,7 C 15,6 C 96 % 15 lf 1011,9 hPa 0,0 l/m 0 min 0 min 44 W/m 12,6 km/h (3 Bft) 95,74 %
01.07.2017 18:59 16,8 C 16,7 C 15,6 C 96 % 15 lf 1011,9 hPa 0,0 l/m 0 min 0 min 48 W/m 6,3 km/h (2 Bft) 91,30 %
01.07.2017 19:00 16,8 C 16,7 C 15,6 C 96 % 15 lf 1011,9 hPa 0,0 l/m 0 min 0 min 49 W/m 12,6 km/h (3 Bft) 98,25 %
01.07.2017 19:05 16,8 C 17,2 C 15,6 C 96 % 15 lf 1011,9 hPa 0,0 l/m 0 min 0 min 68 W/m 8,4 km/h (2 Bft) 98,25 %
01.07.2017 19:10 16,9 C 17,2 C 16,1 C 96 % 15 lf 1012,0 hPa 0,0 l/m 0 min 0 min 70 W/m 10,5 km/h (2 Bft) 98,25 %
01.07.2017 19:15 16,9 C 17,8 C 16,1 C 96 % 15 lf 1012,0 hPa 0,0 l/m 0 min 0 min 82 W/m 12,6 km/h (3 Bft) 96,49 %
01.07.2017 19:20 16,9 C 17,8 C 16,1 C 96 % 15 lf 1012,1 hPa 0,0 l/m 0 min 0 min 78 W/m 10,5 km/h (2 Bft) 100,00 %
01.07.2017 19:25 17,0 C 17,8 C 16,1 C 96 % 15 lf 1012,1 hPa 0,0 l/m 0 min 0 min 72 W/m 10,5 km/h (2 Bft) 98,25 %
01.07.2017 19:30 17,0 C 17,8 C 16,1 C 96 % 15 lf 1012,2 hPa 0,0 l/m 0 min 0 min 60 W/m 10,5 km/h (2 Bft) 98,25 %
01.07.2017 19:35 17,1 C 17,2 C 16,1 C 96 % 15 lf 1012,2 hPa 0,0 l/m 0 min 0 min 68 W/m 10,5 km/h (2 Bft) 100,00 %
01.07.2017 19:40 17,1 C 17,8 C 16,1 C 96 % 15 lf 1012,2 hPa 0,0 l/m 0 min 0 min 105 W/m 14,6 km/h (3 Bft) 100,00 %
01.07.2017 19:45 17,1 C 17,8 C 16,1 C 96 % 15 lf 1012,3 hPa 0,0 l/m 0 min 0 min 134 W/m 16,7 km/h (3 Bft) 98,25 %
01.07.2017 19:50 17,2 C 18,3 C 16,7 C 96 % 15 lf 1012,3 hPa 0,0 l/m 5 min 0 min 177 W/m 10,5 km/h (2 Bft) 100,00 %
01.07.2017 19:55 17,3 C 18,9 C 16,7 C 97 % 11 lf 1012,2 hPa 0,0 l/m 5 min 0 min 245 W/m 10,5 km/h (2 Bft) 98,25 %
01.07.2017 20:00 17,4 C 18,9 C 16,7 C 97 % 5 lf 1012,2 hPa 0,0 l/m 5 min 0 min 189 W/m 10,5 km/h (2 Bft) 98,25 %
01.07.2017 20:05 17,5 C 18,3 C 16,1 C 97 % 3 lf 1012,3 hPa 0,0 l/m 5 min 0 min 160 W/m 14,6 km/h (3 Bft) 100,00 %
01.07.2017 20:10 17,5 C 18,3 C 16,1 C 97 % 1 lf 1012,3 hPa 0,0 l/m 5 min 0 min 142 W/m 14,6 km/h (3 Bft) 100,00 %
01.07.2017 20:15 17,5 C 17,8 C 16,1 C 97 % 1 lf 1012,4 hPa 0,0 l/m 5 min 0 min 128 W/m 14,6 km/h (3 Bft) 100,00 %
01.07.2017 20:20 17,6 C 17,8 C 16,1 C 97 % 1 lf 1012,5 hPa 0,0 l/m 5 min 0 min 115 W/m 16,7 km/h (3 Bft) 100,00 %
01.07.2017 20:25 17,6 C 17,8 C 16,1 C 96 % 1 lf 1012,6 hPa 0,0 l/m 5 min 0 min 103 W/m 10,5 km/h (2 Bft) 100,00 %
01.07.2017 20:30 17,6 C 17,8 C 16,1 C 96 % 1 lf 1012,7 hPa 0,0 l/m 5 min 0 min 91 W/m 14,6 km/h (3 Bft) 100,00 %
01.07.2017 20:35 17,6 C 17,8 C 15,6 C 96 % 1 lf 1012,7 hPa 0,0 l/m 5 min 0 min 86 W/m 12,6 km/h (3 Bft) 100,00 %
01.07.2017 20:40 17,6 C 17,8 C 15,6 C 96 % 1 lf 1012,8 hPa 0,0 l/m 5 min 0 min 79 W/m 10,5 km/h (2 Bft) 100,00 %
01.07.2017 20:45 17,6 C 17,8 C 15,6 C 96 % 1 lf 1012,8 hPa 0,0 l/m 0 min 0 min 40 W/m 10,5 km/h (2 Bft) 100,00 %
01.07.2017 20:50 17,6 C 17,2 C 15,6 C 96 % 1 lf 1012,9 hPa 0,0 l/m 0 min 0 min 32 W/m 8,4 km/h (2 Bft) 100,00 %
01.07.2017 20:55 17,6 C 17,2 C 15,6 C 96 % 1 lf 1013,0 hPa 0,0 l/m 0 min 0 min 33 W/m 10,5 km/h (2 Bft) 100,00 %
01.07.2017 21:00 17,6 C 17,2 C 16,1 C 96 % 1 lf 1013,0 hPa 0,0 l/m 0 min 0 min 43 W/m 6,3 km/h (2 Bft) 97,37 %
01.07.2017 21:05 17,6 C 17,2 C 16,1 C 96 % 1 lf 1012,9 hPa 0,0 l/m 5 min 0 min 51 W/m 4,2 km/h (1 Bft) 97,37 %
01.07.2017 21:10 17,6 C 17,8 C 16,1 C 96 % 1 lf 1013,1 hPa 0,0 l/m 5 min 0 min 52 W/m 2,1 km/h (1 Bft) 96,49 %
01.07.2017 21:15 17,6 C 17,2 C 15,6 C 96 % 1 lf 1013,0 hPa 0,0 l/m 5 min 0 min 35 W/m 6,3 km/h (2 Bft) 97,37 %
01.07.2017 21:20 17,6 C 17,2 C 15,6 C 96 % 1 lf 1013,2 hPa 0,0 l/m 0 min 0 min 23 W/m 0,0 km/h (0 Bft) 100,00 %
01.07.2017 21:22 17,6 C 16,7 C 15,0 C 96 % 1 lf 1013,1 hPa 0,0 l/m 0 min 0 min 22 W/m 4,2 km/h (1 Bft) 96,08 %
01.07.2017 21:24 17,6 C 16,7 C 15,0 C 96 % 1 lf 1013,2 hPa 0,0 l/m 0 min 0 min 20 W/m 2,1 km/h (1 Bft) 97,87 %
01.07.2017 21:26 17,5 C 16,7 C 15,0 C 96 % 1 lf 1013,2 hPa 0,0 l/m 0 min 0 min 18 W/m 2,1 km/h (1 Bft) 97,87 %
01.07.2017 21:28 17,5 C 16,7 C 15,0 C 96 % 1 lf 1013,2 hPa 0,0 l/m 0 min 0 min 16 W/m 2,1 km/h (1 Bft) 93,62 %
01.07.2017 21:30 17,5 C 16,7 C 15,0 C 96 % 1 lf 1013,3 hPa 0,0 l/m 0 min 0 min 14 W/m 4,2 km/h (1 Bft) 98,18 %
01.07.2017 21:32 17,4 C 16,7 C 15,0 C 96 % 2 lf 1013,3 hPa 0,0 l/m 0 min 0 min 14 W/m 4,2 km/h (1 Bft) 97,87 %
01.07.2017 21:34 17,4 C 16,7 C 15,0 C 96 % 2 lf 1013,2 hPa 0,0 l/m 0 min 0 min 12 W/m 4,2 km/h (1 Bft) 97,87 %
01.07.2017 21:36 17,4 C 16,7 C 15,0 C 95 % 2 lf 1013,2 hPa 0,0 l/m 0 min 0 min 12 W/m 8,4 km/h (2 Bft) 97,83 %
01.07.2017 21:38 17,4 C 16,7 C 15,0 C 95 % 2 lf 1013,3 hPa 0,0 l/m 0 min 0 min 11 W/m 6,3 km/h (2 Bft) 97,87 %
01.07.2017 21:40 17,4 C 16,1 C 15,0 C 95 % 2 lf 1013,3 hPa 0,0 l/m 0 min 0 min 11 W/m 6,3 km/h (2 Bft) 100,00 %
01.07.2017 21:42 17,3 C 16,1 C 14,4 C 95 % 2 lf 1013,4 hPa 0,0 l/m 0 min 0 min 9 W/m 4,2 km/h (1 Bft) 97,87 %
01.07.2017 21:44 17,3 C 16,1 C 15,0 C 96 % 2 lf 1013,5 hPa 0,0 l/m 0 min 0 min 8 W/m 6,3 km/h (2 Bft) 95,74 %
01.07.2017 21:46 17,3 C 16,1 C 14,4 C 96 % 2 lf 1013,5 hPa 0,0 l/m 0 min 0 min 7 W/m 6,3 km/h (2 Bft) 100,00 %
01.07.2017 21:48 17,3 C 16,1 C 14,4 C 95 % 3 lf 1013,5 hPa 0,0 l/m 0 min 0 min 6 W/m 2,1 km/h (1 Bft) 100,00 %
01.07.2017 21:50 17,3 C 16,1 C 14,4 C 95 % 3 lf 1013,5 hPa 0,0 l/m 0 min 0 min 5 W/m 6,3 km/h (2 Bft) 100,00 %
01.07.2017 21:52 17,2 C 16,1 C 14,4 C 95 % 3 lf 1013,6 hPa 0,0 l/m 0 min 0 min 5 W/m 4,2 km/h (1 Bft) 97,87 %
01.07.2017 21:54 17,2 C 16,1 C 14,4 C 95 % 3 lf 1013,6 hPa 0,0 l/m 0 min 0 min 5 W/m 4,2 km/h (1 Bft) 100,00 %
01.07.2017 21:56 17,2 C 15,6 C 14,4 C 95 % 3 lf 1013,6 hPa 0,0 l/m 0 min 0 min 0 W/m 6,3 km/h (2 Bft) 100,00 %
01.07.2017 21:58 17,1 C 16,1 C 14,4 C 95 % 3 lf 1013,7 hPa 0,0 l/m 0 min 0 min 0 W/m 6,3 km/h (2 Bft) 97,87 %
01.07.2017 22:00 17,1 C 15,6 C 14,4 C 95 % 3 lf 1013,7 hPa 0,0 l/m 0 min 0 min 0 W/m 6,3 km/h (2 Bft) 100,00 %
01.07.2017 22:02 17,1 C 16,1 C 14,4 C 95 % 3 lf 1013,7 hPa 0,0 l/m 0 min 0 min 0 W/m 6,3 km/h (2 Bft) 97,83 %
01.07.2017 22:04 17,1 C 15,6 C 14,4 C 95 % 3 lf 1013,7 hPa 0,0 l/m 0 min 0 min 0 W/m 10,5 km/h (2 Bft) 97,87 %
01.07.2017 22:06 17,0 C 15,6 C 14,4 C 95 % 3 lf 1013,9 hPa 0,0 l/m 0 min 0 min 0 W/m 10,5 km/h (2 Bft) 97,87 %
01.07.2017 22:08 16,9 C 15,6 C 14,4 C 95 % 4 lf 1013,9 hPa 0,0 l/m 0 min 0 min 0 W/m 6,3 km/h (2 Bft) 97,87 %
01.07.2017 22:10 16,9 C 15,6 C 14,4 C 95 % 4 lf 1014,0 hPa 0,0 l/m 0 min 0 min 0 W/m 8,4 km/h (2 Bft) 97,87 %
01.07.2017 22:12 16,9 C 15,6 C 14,4 C 95 % 4 lf 1014,0 hPa 0,0 l/m 0 min 0 min 0 W/m 6,3 km/h (2 Bft) 97,73 %
01.07.2017 22:14 16,9 C 15,6 C 14,4 C 95 % 4 lf 1014,1 hPa 0,0 l/m 0 min 0 min 0 W/m 10,5 km/h (2 Bft) 97,83 %
01.07.2017 22:16 16,8 C 15,6 C 14,4 C 95 % 3 lf 1014,1 hPa 0,0 l/m 0 min 0 min 0 W/m 8,4 km/h (2 Bft) 100,00 %
01.07.2017 22:18 16,8 C 15,6 C 14,4 C 95 % 3 lf 1014,1 hPa 0,0 l/m 0 min 0 min 0 W/m 8,4 km/h (2 Bft) 98,00 %
01.07.2017 22:20 16,8 C 15,6 C 14,4 C 95 % 3 lf 1014,1 hPa 0,0 l/m 0 min 0 min 0 W/m 8,4 km/h (2 Bft) 93,62 %
01.07.2017 22:22 16,8 C 16,1 C 14,4 C 95 % 3 lf 1014,2 hPa 0,0 l/m 0 min 0 min 0 W/m 6,3 km/h (2 Bft) 93,62 %
01.07.2017 22:24 16,8 C 16,1 C 15,0 C 95 % 3 lf 1014,2 hPa 0,0 l/m 0 min 0 min 0 W/m 8,4 km/h (2 Bft) 93,48 %
01.07.2017 22:26 16,7 C 16,1 C 15,0 C 95 % 3 lf 1014,2 hPa 0,0 l/m 0 min 0 min 0 W/m 8,4 km/h (2 Bft) 94,00 %
01.07.2017 22:28 16,7 C 16,1 C 15,0 C 95 % 3 lf 1014,3 hPa 0,0 l/m 0 min 0 min 0 W/m 10,5 km/h (2 Bft) 95,74 %
01.07.2017 22:30 16,7 C 16,1 C 15,0 C 95 % 3 lf 1014,2 hPa 0,0 l/m 0 min 0 min 0 W/m 14,6 km/h (3 Bft) 95,74 %
01.07.2017 22:32 16,7 C 16,1 C 15,0 C 95 % 3 lf 1014,3 hPa 0,0 l/m 0 min 0 min 0 W/m 10,5 km/h (2 Bft) 93,62 %
01.07.2017 22:34 16,7 C 16,1 C 15,0 C 95 % 2 lf 1014,3 hPa 0,0 l/m 0 min 0 min 0 W/m 18,8 km/h (3 Bft) 93,62 %
01.07.2017 22:36 16,7 C 16,1 C 15,0 C 95 % 2 lf 1014,4 hPa 0,0 l/m 0 min 0 min 0 W/m 16,7 km/h (3 Bft) 88,57 %
01.07.2017 22:38 16,7 C 16,1 C 15,0 C 95 % 2 lf 1014,4 hPa 0,0 l/m 0 min 0 min 0 W/m 14,6 km/h (3 Bft) 93,62 %
01.07.2017 22:40 16,6 C 16,1 C 14,4 C 95 % 2 lf 1014,4 hPa 0,0 l/m 0 min 0 min 0 W/m 16,7 km/h (3 Bft) 94,55 %
01.07.2017 22:42 16,6 C 16,1 C 14,4 C 95 % 2 lf 1014,5 hPa 0,0 l/m 0 min 0 min 0 W/m 12,6 km/h (3 Bft) 94,00 %
01.07.2017 22:44 16,6 C 16,1 C 14,4 C 95 % 2 lf 1014,4 hPa 0,0 l/m 0 min 0 min 0 W/m 8,4 km/h (2 Bft) 93,62 %
01.07.2017 22:46 16,6 C 16,1 C 14,4 C 96 % 2 lf 1014,5 hPa 0,0 l/m 0 min 0 min 0 W/m 10,5 km/h (2 Bft) 91,30 %
01.07.2017 22:48 16,6 C 16,1 C 14,4 C 96 % 2 lf 1014,7 hPa 0,0 l/m 0 min 0 min 0 W/m 8,4 km/h (2 Bft) 93,62 %
01.07.2017 22:50 16,6 C 16,1 C 14,4 C 96 % 2 lf 1014,7 hPa 0,0 l/m 0 min 0 min 0 W/m 8,4 km/h (2 Bft) 95,74 %
01.07.2017 22:52 16,6 C 16,1 C 14,4 C 96 % 2 lf 1014,7 hPa 0,0 l/m 0 min 0 min 0 W/m 8,4 km/h (2 Bft) 93,62 %
01.07.2017 22:54 16,5 C 15,6 C 14,4 C 96 % 2 lf 1014,7 hPa 0,0 l/m 0 min 0 min 0 W/m 12,6 km/h (3 Bft) 91,49 %
01.07.2017 22:56 16,5 C 15,6 C 14,4 C 96 % 2 lf 1014,7 hPa 0,0 l/m 0 min 0 min 0 W/m 10,5 km/h (2 Bft) 93,62 %
01.07.2017 22:58 16,4 C 15,6 C 14,4 C 96 % 2 lf 1014,7 hPa 0,0 l/m 0 min 0 min 0 W/m 14,6 km/h (3 Bft) 93,48 %
01.07.2017 23:00 16,4 C 15,6 C 13,9 C 96 % 2 lf 1014,7 hPa 0,0 l/m 0 min 0 min 0 W/m 12,6 km/h (3 Bft) 91,49 %
01.07.2017 23:02 16,4 C 15,6 C 13,9 C 96 % 2 lf 1014,7 hPa 0,0 l/m 0 min 0 min 0 W/m 10,5 km/h (2 Bft) 93,62 %
01.07.2017 23:04 16,4 C 15,6 C 13,9 C 95 % 2 lf 1014,7 hPa 0,0 l/m 0 min 0 min 0 W/m 18,8 km/h (3 Bft) 93,62 %
01.07.2017 23:06 16,3 C 15,6 C 13,9 C 95 % 2 lf 1014,7 hPa 0,0 l/m 0 min 0 min 0 W/m 8,4 km/h (2 Bft) 93,62 %
01.07.2017 23:08 16,3 C 15,6 C 13,9 C 95 % 2 lf 1014,8 hPa 0,0 l/m 0 min 0 min 0 W/m 18,8 km/h (3 Bft) 94,29 %
01.07.2017 23:10 16,2 C 15,6 C 13,9 C 95 % 2 lf 1014,8 hPa 0,0 l/m 0 min 0 min 0 W/m 12,6 km/h (3 Bft) 95,74 %
01.07.2017 23:12 16,2 C 15,6 C 13,9 C 95 % 2 lf 1014,8 hPa 0,0 l/m 0 min 0 min 0 W/m 10,5 km/h (2 Bft) 95,74 %
01.07.2017 23:14 16,2 C 15,6 C 13,9 C 95 % 2 lf 1014,8 hPa 0,0 l/m 0 min 0 min 0 W/m 6,3 km/h (2 Bft) 100,00 %
01.07.2017 23:16 16,1 C 15,0 C 13,9 C 95 % 2 lf 1014,8 hPa 0,0 l/m 0 min 0 min 0 W/m 12,6 km/h (3 Bft) 97,87 %
01.07.2017 23:18 16,1 C 15,0 C 13,9 C 95 % 2 lf 1014,9 hPa 0,0 l/m 0 min 0 min 0 W/m 8,4 km/h (2 Bft) 100,00 %
01.07.2017 23:20 16,1 C 15,6 C 13,9 C 95 % 2 lf 1014,9 hPa 0,0 l/m 0 min 0 min 0 W/m 16,7 km/h (3 Bft) 97,87 %
01.07.2017 23:22 16,0 C 15,6 C 13,9 C 95 % 2 lf 1014,9 hPa 0,0 l/m 0 min 0 min 0 W/m 10,5 km/h (2 Bft) 100,00 %
01.07.2017 23:24 15,9 C 15,6 C 13,9 C 95 % 2 lf 1014,9 hPa 0,0 l/m 0 min 0 min 0 W/m 10,5 km/h (2 Bft) 100,00 %
01.07.2017 23:26 15,9 C 15,0 C 13,9 C 95 % 2 lf 1015,0 hPa 0,0 l/m 0 min 0 min 0 W/m 8,4 km/h (2 Bft) 97,87 %
01.07.2017 23:28 15,9 C 15,0 C 13,9 C 95 % 2 lf 1015,0 hPa 0,0 l/m 0 min 0 min 0 W/m 8,4 km/h (2 Bft) 97,87 %
01.07.2017 23:30 15,9 C 15,0 C 13,9 C 95 % 2 lf 1015,0 hPa 0,0 l/m 0 min 0 min 0 W/m 10,5 km/h (2 Bft) 100,00 %
01.07.2017 23:32 15,8 C 15,0 C 13,9 C 95 % 2 lf 1015,0 hPa 0,0 l/m 0 min 0 min 0 W/m 12,6 km/h (3 Bft) 100,00 %
01.07.2017 23:34 15,8 C 15,0 C 13,9 C 95 % 2 lf 1015,0 hPa 0,0 l/m 0 min 0 min 0 W/m 6,3 km/h (2 Bft) 97,83 %
01.07.2017 23:36 15,8 C 15,0 C 13,9 C 95 % 2 lf 1015,1 hPa 0,0 l/m 0 min 0 min 0 W/m 6,3 km/h (2 Bft) 100,00 %
01.07.2017 23:38 15,8 C 15,0 C 13,9 C 95 % 1 lf 1015,1 hPa 0,0 l/m 0 min 0 min 0 W/m 18,8 km/h (3 Bft) 97,87 %
01.07.2017 23:40 15,7 C 15,6 C 13,9 C 95 % 1 lf 1015,1 hPa 0,0 l/m 0 min 0 min 0 W/m 10,5 km/h (2 Bft) 100,00 %
01.07.2017 23:42 15,7 C 15,0 C 13,9 C 95 % 1 lf 1015,2 hPa 0,0 l/m 0 min 0 min 0 W/m 12,6 km/h (3 Bft) 97,87 %
01.07.2017 23:44 15,7 C 15,0 C 13,9 C 95 % 1 lf 1015,3 hPa 0,0 l/m 0 min 0 min 0 W/m 12,6 km/h (3 Bft) 100,00 %
01.07.2017 23:46 15,7 C 15,0 C 13,9 C 95 % 1 lf 1015,3 hPa 0,0 l/m 0 min 0 min 0 W/m 14,6 km/h (3 Bft) 100,00 %
01.07.2017 23:48 15,6 C 15,0 C 13,9 C 95 % 1 lf 1015,3 hPa 0,0 l/m 0 min 0 min 0 W/m 12,6 km/h (3 Bft) 95,74 %
01.07.2017 23:50 15,6 C 15,6 C 13,9 C 95 % 1 lf 1015,3 hPa 0,0 l/m 0 min 0 min 0 W/m 14,6 km/h (3 Bft) 100,00 %
01.07.2017 23:52 15,6 C 15,6 C 13,9 C 95 % 1 lf 1015,4 hPa 0,0 l/m 0 min 0 min 0 W/m 16,7 km/h (3 Bft) 97,73 %
01.07.2017 23:54 15,6 C 15,6 C 13,9 C 95 % 1 lf 1015,3 hPa 0,0 l/m 0 min 0 min 0 W/m 12,6 km/h (3 Bft) 97,87 %
01.07.2017 23:56 15,5 C 15,6 C 13,9 C 95 % 1 lf 1015,4 hPa 0,0 l/m 0 min 0 min 0 W/m 12,6 km/h (3 Bft) 97,87 %
01.07.2017 23:58 15,5 C 15,0 C 13,9 C 95 % 1 lf 1015,4 hPa 0,0 l/m 0 min 0 min 0 W/m 10,5 km/h (2 Bft) 97,83 %
_ Min-Zeit 07:22 02:30 04:12 00:00 12:58 07:02 - - - - 00:22 18:38
Minimum _ 14,7 C 14,4 C 13,3 C 92 % 0 lf 1004,5 hPa - - - - 0,0 km/h (0 Bft) 87,23 %
_ Max-Zeit 20:20 14:18 14:40 07:42 00:00 23:52 07:18 19:50 05:03 14:18 06:46 01:28
Maximum _ 17,6 C 19,4 C 17,8 C 98 % 15 lf 1015,4 hPa 0,4 l/m 5 min 3 min 277 W/m 27,2 km/h
SW (4 Bft)
100,00 %
Durchschnitt _ 16,0 C 15,9 C 14,8 C 96 % 11 lf 1008,2 hPa #6,4 l/m #1:10 h #7:20 h 90 W/m 12,2 km/h (2 Bft) 96,70 %
© 2017 W. Hausmann